GEFSSE_prec_meanprecacc_192.txt.gz
Total_Precipitation_Accumulation
0.05 0.06 0.22 0.26 0.27 0.26 0.26 0.26 0.23 0.21 0.21 0.22 0.24 0.25 0.24 0.24 0.24 0.25 0.28 0.32 0.34 0.30 0.32 0.36 0.35 0.33 0.32 0.31 0.31 0.30 0.25 0.21 0.20 0.23 0.30 0.38 0.35 0.28 0.24 0.22 0.18 0.26 0.35
0.04 0.06 0.15 0.19 0.22 0.25 0.25 0.22 0.19 0.16 0.17 0.17 0.16 0.18 0.19 0.20 0.21 0.23 0.27 0.32 0.36 0.31 0.30 0.33 0.35 0.36 0.35 0.34 0.35 0.33 0.24 0.16 0.13 0.12 0.16 0.23 0.28 0.26 0.23 0.23 0.24 0.37 0.40
0.02 0.04 0.09 0.15 0.19 0.22 0.22 0.20 0.16 0.14 0.12 0.12 0.11 0.13 0.15 0.17 0.20 0.22 0.25 0.26 0.30 0.33 0.32 0.32 0.41 0.43 0.40 0.39 0.37 0.34 0.27 0.15 0.09 0.09 0.09 0.18 0.27 0.32 0.28 0.26 0.26 0.29 0.33
0.01 0.02 0.04 0.12 0.17 0.20 0.21 0.19 0.15 0.14 0.12 0.11 0.11 0.11 0.14 0.16 0.17 0.21 0.25 0.28 0.31 0.40 0.43 0.45 0.52 0.49 0.44 0.39 0.36 0.32 0.30 0.20 0.10 0.07 0.06 0.17 0.33 0.39 0.34 0.30 0.25 0.26 0.29
0.00 0.01 0.04 0.10 0.16 0.19 0.19 0.20 0.18 0.15 0.12 0.12 0.12 0.12 0.13 0.14 0.16 0.18 0.21 0.26 0.32 0.43 0.44 0.42 0.46 0.45 0.41 0.38 0.34 0.35 0.39 0.28 0.14 0.05 0.05 0.12 0.27 0.43 0.37 0.35 0.29 0.25 0.27
0.00 0.01 0.03 0.10 0.16 0.18 0.20 0.23 0.23 0.17 0.13 0.13 0.13 0.13 0.14 0.14 0.13 0.15 0.16 0.18 0.22 0.29 0.31 0.35 0.39 0.40 0.38 0.35 0.30 0.33 0.42 0.37 0.16 0.04 0.05 0.09 0.21 0.39 0.37 0.35 0.31 0.26 0.24
0.00 0.01 0.03 0.10 0.16 0.18 0.19 0.23 0.24 0.18 0.14 0.13 0.14 0.16 0.15 0.14 0.13 0.13 0.12 0.12 0.12 0.16 0.20 0.28 0.37 0.42 0.41 0.35 0.30 0.35 0.43 0.35 0.13 0.10 0.12 0.13 0.19 0.27 0.38 0.39 0.34 0.30 0.27
0.00 0.01 0.03 0.11 0.17 0.18 0.18 0.21 0.27 0.22 0.17 0.15 0.17 0.18 0.18 0.17 0.17 0.18 0.15 0.12 0.11 0.11 0.14 0.20 0.31 0.48 0.48 0.36 0.34 0.40 0.39 0.21 0.08 0.08 0.11 0.15 0.19 0.31 0.60 0.67 0.47 0.36 0.33
0.00 0.01 0.03 0.09 0.13 0.16 0.18 0.21 0.26 0.23 0.20 0.18 0.19 0.20 0.19 0.18 0.18 0.20 0.19 0.16 0.16 0.14 0.14 0.15 0.24 0.44 0.46 0.39 0.39 0.44 0.31 0.12 0.04 0.11 0.10 0.19 0.18 0.38 0.73 0.81 0.68 0.48 0.38
0.01 0.01 0.04 0.08 0.10 0.13 0.14 0.19 0.23 0.22 0.22 0.21 0.20 0.18 0.15 0.15 0.17 0.17 0.14 0.12 0.14 0.16 0.15 0.14 0.16 0.29 0.36 0.36 0.44 0.40 0.18 0.06 0.02 0.07 0.17 0.17 0.16 0.40 0.80 0.90 0.82 0.66 0.52
0.02 0.02 0.04 0.09 0.11 0.12 0.13 0.14 0.19 0.19 0.18 0.18 0.17 0.15 0.15 0.13 0.13 0.12 0.10 0.09 0.11 0.14 0.15 0.18 0.18 0.22 0.27 0.26 0.33 0.26 0.09 0.04 0.04 0.08 0.16 0.15 0.17 0.38 0.76 0.93 0.87 0.79 0.70
0.02 0.03 0.05 0.08 0.11 0.11 0.10 0.11 0.15 0.15 0.14 0.13 0.12 0.13 0.14 0.16 0.15 0.13 0.11 0.11 0.13 0.12 0.14 0.19 0.22 0.21 0.21 0.19 0.31 0.26 0.12 0.09 0.09 0.06 0.09 0.08 0.19 0.39 0.63 0.84 0.93 0.87 0.82
0.01 0.02 0.05 0.08 0.10 0.10 0.10 0.10 0.12 0.13 0.15 0.15 0.15 0.16 0.20 0.22 0.21 0.18 0.15 0.14 0.13 0.12 0.13 0.17 0.21 0.20 0.25 0.39 0.53 0.42 0.28 0.22 0.13 0.07 0.04 0.05 0.14 0.29 0.49 0.67 0.87 0.98 0.97
0.02 0.03 0.05 0.08 0.09 0.09 0.09 0.10 0.10 0.11 0.11 0.12 0.14 0.14 0.16 0.18 0.17 0.15 0.12 0.11 0.11 0.12 0.12 0.15 0.17 0.21 0.24 0.31 0.36 0.33 0.27 0.24 0.17 0.12 0.07 0.06 0.09 0.16 0.29 0.45 0.66 0.91 1.01
0.02 0.03 0.05 0.07 0.09 0.10 0.11 0.11 0.09 0.09 0.09 0.08 0.09 0.09 0.09 0.10 0.11 0.11 0.09 0.08 0.07 0.07 0.07 0.09 0.10 0.12 0.16 0.20 0.20 0.21 0.22 0.21 0.17 0.16 0.14 0.10 0.09 0.11 0.17 0.30 0.43 0.68 0.93
0.03 0.03 0.04 0.05 0.07 0.10 0.10 0.12 0.10 0.09 0.10 0.10 0.10 0.09 0.08 0.07 0.06 0.06 0.06 0.05 0.05 0.04 0.04 0.06 0.06 0.07 0.10 0.14 0.14 0.14 0.15 0.14 0.13 0.14 0.15 0.15 0.12 0.11 0.16 0.24 0.32 0.44 0.70
0.03 0.03 0.03 0.05 0.07 0.09 0.10 0.11 0.11 0.10 0.10 0.11 0.11 0.10 0.08 0.08 0.07 0.05 0.04 0.04 0.04 0.04 0.06 0.11 0.14 0.15 0.15 0.17 0.16 0.18 0.17 0.16 0.15 0.17 0.18 0.18 0.18 0.16 0.18 0.27 0.33 0.36 0.50
0.03 0.04 0.04 0.04 0.06 0.08 0.11 0.12 0.13 0.12 0.11 0.11 0.11 0.11 0.10 0.10 0.10 0.09 0.06 0.04 0.03 0.04 0.06 0.12 0.17 0.20 0.20 0.22 0.22 0.25 0.27 0.26 0.21 0.22 0.24 0.22 0.22 0.20 0.19 0.23 0.32 0.38 0.48
0.03 0.04 0.04 0.04 0.05 0.06 0.10 0.14 0.13 0.14 0.13 0.11 0.11 0.12 0.12 0.13 0.13 0.12 0.11 0.08 0.05 0.05 0.07 0.11 0.14 0.18 0.21 0.24 0.27 0.29 0.34 0.35 0.33 0.28 0.25 0.24 0.23 0.21 0.22 0.24 0.28 0.32 0.43
0.04 0.05 0.04 0.05 0.06 0.06 0.09 0.15 0.16 0.15 0.14 0.11 0.10 0.10 0.12 0.13 0.13 0.12 0.11 0.11 0.10 0.10 0.11 0.13 0.15 0.17 0.20 0.26 0.31 0.30 0.35 0.36 0.35 0.32 0.29 0.31 0.30 0.24 0.23 0.24 0.27 0.27 0.30
0.04 0.06 0.06 0.05 0.06 0.07 0.09 0.13 0.16 0.13 0.12 0.12 0.09 0.08 0.09 0.10 0.10 0.10 0.10 0.10 0.10 0.10 0.12 0.14 0.15 0.15 0.15 0.19 0.24 0.22 0.20 0.24 0.27 0.26 0.25 0.28 0.32 0.35 0.34 0.31 0.29 0.28 0.29
0.02 0.05 0.07 0.06 0.05 0.06 0.07 0.09 0.12 0.11 0.10 0.11 0.10 0.08 0.08 0.08 0.09 0.09 0.09 0.10 0.10 0.08 0.07 0.07 0.08 0.11 0.10 0.10 0.19 0.23 0.18 0.16 0.16 0.17 0.18 0.22 0.28 0.36 0.39 0.40 0.40 0.36 0.33
0.01 0.03 0.06 0.06 0.05 0.05 0.06 0.09 0.13 0.15 0.13 0.12 0.12 0.10 0.08 0.08 0.08 0.07 0.08 0.09 0.10 0.09 0.08 0.07 0.07 0.09 0.10 0.08 0.12 0.29 0.38 0.26 0.17 0.12 0.14 0.16 0.20 0.21 0.24 0.29 0.34 0.38 0.38
0.01 0.02 0.05 0.07 0.07 0.06 0.07 0.09 0.11 0.14 0.12 0.10 0.09 0.09 0.08 0.07 0.07 0.07 0.07 0.09 0.10 0.10 0.09 0.08 0.07 0.09 0.11 0.11 0.09 0.14 0.26 0.30 0.36 0.24 0.07 0.06 0.08 0.10 0.13 0.15 0.20 0.24 0.30
0.01 0.01 0.02 0.07 0.08 0.07 0.07 0.08 0.10 0.12 0.11 0.10 0.09 0.09 0.09 0.08 0.06 0.07 0.07 0.09 0.10 0.10 0.09 0.09 0.09 0.10 0.11 0.14 0.15 0.15 0.14 0.15 0.25 0.40 0.19 0.04 0.03 0.05 0.08 0.11 0.14 0.19 0.24
0.01 0.01 0.02 0.05 0.08 0.08 0.09 0.09 0.10 0.11 0.11 0.12 0.11 0.09 0.08 0.09 0.07 0.06 0.07 0.08 0.09 0.10 0.11 0.11 0.12 0.12 0.12 0.14 0.16 0.18 0.23 0.27 0.25 0.34 0.31 0.14 0.08 0.05 0.06 0.08 0.11 0.16 0.23

GEFSSE_prec_meanprecacc_198.txt.gz
Total_Precipitation_Accumulation
0.05 0.06 0.22 0.27 0.28 0.27 0.27 0.28 0.25 0.22 0.22 0.23 0.25 0.26 0.25 0.26 0.26 0.27 0.29 0.33 0.36 0.32 0.34 0.38 0.37 0.36 0.35 0.33 0.32 0.31 0.26 0.22 0.22 0.24 0.33 0.39 0.36 0.29 0.25 0.23 0.19 0.27 0.36
0.04 0.06 0.16 0.20 0.23 0.25 0.26 0.24 0.21 0.18 0.18 0.18 0.17 0.19 0.20 0.21 0.23 0.24 0.28 0.34 0.38 0.33 0.32 0.35 0.38 0.39 0.37 0.36 0.36 0.34 0.25 0.17 0.14 0.14 0.17 0.24 0.29 0.28 0.24 0.24 0.25 0.38 0.41
0.02 0.04 0.10 0.15 0.19 0.23 0.23 0.21 0.17 0.15 0.13 0.13 0.12 0.14 0.16 0.18 0.21 0.23 0.27 0.28 0.31 0.35 0.34 0.34 0.43 0.45 0.42 0.40 0.38 0.34 0.27 0.16 0.10 0.09 0.09 0.18 0.28 0.33 0.29 0.26 0.27 0.31 0.35
0.01 0.02 0.04 0.12 0.18 0.21 0.22 0.20 0.16 0.15 0.12 0.12 0.12 0.13 0.15 0.17 0.19 0.22 0.27 0.29 0.33 0.41 0.44 0.47 0.53 0.51 0.45 0.40 0.37 0.32 0.30 0.20 0.10 0.08 0.07 0.17 0.33 0.40 0.34 0.30 0.26 0.27 0.30
0.00 0.01 0.04 0.11 0.17 0.19 0.20 0.21 0.19 0.16 0.13 0.12 0.13 0.12 0.14 0.16 0.17 0.20 0.23 0.27 0.34 0.44 0.45 0.44 0.47 0.46 0.42 0.39 0.35 0.36 0.40 0.29 0.14 0.06 0.05 0.12 0.27 0.44 0.38 0.36 0.29 0.25 0.27
0.00 0.01 0.03 0.10 0.17 0.18 0.21 0.25 0.24 0.18 0.14 0.14 0.14 0.14 0.14 0.15 0.14 0.16 0.18 0.19 0.24 0.31 0.33 0.36 0.40 0.40 0.39 0.36 0.31 0.34 0.43 0.38 0.16 0.04 0.05 0.09 0.21 0.39 0.38 0.37 0.33 0.27 0.25
0.00 0.01 0.03 0.10 0.17 0.18 0.20 0.25 0.25 0.19 0.15 0.14 0.15 0.17 0.16 0.15 0.15 0.15 0.13 0.13 0.14 0.17 0.21 0.29 0.38 0.42 0.42 0.35 0.31 0.36 0.43 0.35 0.13 0.10 0.12 0.13 0.19 0.28 0.40 0.41 0.35 0.32 0.29
0.00 0.01 0.03 0.11 0.18 0.19 0.20 0.23 0.28 0.23 0.19 0.16 0.19 0.20 0.19 0.18 0.18 0.19 0.16 0.14 0.13 0.12 0.15 0.20 0.32 0.49 0.49 0.36 0.34 0.40 0.39 0.21 0.08 0.08 0.11 0.15 0.19 0.32 0.61 0.68 0.48 0.37 0.33
0.01 0.01 0.04 0.10 0.14 0.18 0.19 0.23 0.28 0.25 0.22 0.20 0.22 0.23 0.22 0.20 0.19 0.21 0.20 0.18 0.18 0.16 0.15 0.16 0.25 0.44 0.47 0.39 0.40 0.44 0.31 0.12 0.04 0.11 0.10 0.19 0.18 0.39 0.74 0.82 0.69 0.50 0.39
0.01 0.02 0.04 0.09 0.12 0.15 0.17 0.21 0.25 0.25 0.24 0.23 0.22 0.21 0.18 0.18 0.19 0.18 0.15 0.14 0.16 0.18 0.17 0.15 0.17 0.29 0.36 0.36 0.44 0.40 0.18 0.06 0.02 0.07 0.17 0.17 0.16 0.41 0.81 0.90 0.83 0.68 0.53
0.02 0.03 0.05 0.10 0.12 0.13 0.14 0.17 0.21 0.22 0.21 0.21 0.20 0.17 0.17 0.16 0.15 0.15 0.12 0.11 0.14 0.16 0.17 0.19 0.19 0.23 0.28 0.27 0.33 0.26 0.09 0.04 0.04 0.08 0.16 0.15 0.17 0.39 0.77 0.93 0.88 0.80 0.71
0.03 0.04 0.05 0.09 0.12 0.13 0.12 0.14 0.17 0.17 0.16 0.15 0.14 0.14 0.16 0.18 0.18 0.16 0.14 0.14 0.16 0.15 0.17 0.21 0.24 0.23 0.22 0.20 0.32 0.26 0.12 0.09 0.09 0.06 0.09 0.08 0.19 0.39 0.64 0.84 0.94 0.87 0.82
0.03 0.04 0.05 0.08 0.11 0.12 0.11 0.12 0.14 0.15 0.16 0.16 0.16 0.17 0.21 0.24 0.24 0.21 0.18 0.16 0.16 0.15 0.16 0.20 0.24 0.22 0.27 0.40 0.54 0.42 0.28 0.22 0.13 0.07 0.04 0.05 0.15 0.30 0.49 0.67 0.87 0.98 0.97
0.05 0.05 0.06 0.09 0.10 0.11 0.11 0.11 0.12 0.13 0.13 0.14 0.16 0.16 0.18 0.20 0.19 0.18 0.15 0.14 0.13 0.14 0.15 0.17 0.19 0.23 0.25 0.32 0.36 0.33 0.27 0.24 0.17 0.12 0.07 0.06 0.09 0.16 0.29 0.46 0.66 0.92 1.02
0.06 0.06 0.07 0.08 0.10 0.11 0.12 0.12 0.10 0.11 0.11 0.10 0.10 0.11 0.11 0.12 0.13 0.13 0.11 0.10 0.10 0.10 0.10 0.11 0.12 0.14 0.18 0.21 0.21 0.21 0.22 0.21 0.17 0.16 0.14 0.11 0.09 0.11 0.18 0.30 0.44 0.68 0.94
0.06 0.06 0.07 0.07 0.09 0.11 0.11 0.12 0.12 0.11 0.11 0.12 0.11 0.10 0.10 0.09 0.08 0.08 0.08 0.07 0.07 0.07 0.07 0.08 0.08 0.09 0.11 0.15 0.14 0.14 0.15 0.14 0.13 0.14 0.15 0.15 0.12 0.11 0.16 0.24 0.33 0.44 0.71
0.06 0.07 0.07 0.08 0.09 0.11 0.11 0.11 0.12 0.11 0.11 0.13 0.12 0.11 0.10 0.09 0.08 0.07 0.06 0.06 0.06 0.07 0.10 0.14 0.16 0.17 0.18 0.19 0.17 0.19 0.18 0.16 0.15 0.17 0.18 0.18 0.18 0.16 0.18 0.28 0.34 0.37 0.51
0.05 0.07 0.08 0.08 0.08 0.10 0.12 0.13 0.13 0.13 0.12 0.12 0.12 0.12 0.12 0.11 0.11 0.10 0.08 0.06 0.06 0.07 0.11 0.17 0.22 0.23 0.23 0.24 0.23 0.26 0.27 0.26 0.21 0.22 0.24 0.22 0.22 0.20 0.19 0.24 0.33 0.38 0.48
0.06 0.06 0.08 0.09 0.08 0.09 0.12 0.15 0.14 0.15 0.14 0.12 0.13 0.14 0.14 0.14 0.14 0.14 0.12 0.10 0.08 0.10 0.12 0.17 0.20 0.23 0.24 0.27 0.28 0.30 0.34 0.36 0.33 0.28 0.25 0.24 0.23 0.21 0.22 0.24 0.28 0.32 0.43
0.06 0.07 0.07 0.08 0.09 0.10 0.12 0.18 0.18 0.16 0.15 0.13 0.11 0.12 0.13 0.14 0.14 0.14 0.13 0.12 0.13 0.15 0.16 0.18 0.21 0.23 0.25 0.29 0.33 0.32 0.35 0.36 0.35 0.32 0.29 0.31 0.30 0.24 0.23 0.24 0.27 0.27 0.30
0.05 0.07 0.08 0.08 0.09 0.11 0.12 0.15 0.17 0.14 0.13 0.13 0.10 0.09 0.10 0.11 0.12 0.12 0.11 0.12 0.12 0.13 0.16 0.20 0.21 0.21 0.22 0.24 0.27 0.24 0.22 0.24 0.27 0.26 0.25 0.28 0.32 0.35 0.34 0.31 0.29 0.28 0.29
0.03 0.05 0.08 0.08 0.07 0.08 0.09 0.11 0.14 0.13 0.12 0.12 0.12 0.10 0.10 0.10 0.10 0.11 0.11 0.12 0.12 0.11 0.10 0.11 0.14 0.17 0.16 0.17 0.24 0.27 0.20 0.17 0.17 0.17 0.18 0.22 0.29 0.36 0.39 0.40 0.40 0.36 0.33
0.02 0.04 0.06 0.07 0.07 0.07 0.08 0.11 0.16 0.17 0.15 0.14 0.14 0.13 0.11 0.10 0.09 0.09 0.09 0.11 0.13 0.14 0.12 0.10 0.11 0.15 0.15 0.13 0.17 0.32 0.40 0.27 0.17 0.12 0.14 0.16 0.20 0.21 0.24 0.29 0.34 0.38 0.39
0.01 0.02 0.05 0.08 0.08 0.07 0.08 0.11 0.14 0.16 0.14 0.12 0.12 0.12 0.12 0.11 0.10 0.09 0.09 0.11 0.13 0.14 0.14 0.12 0.11 0.13 0.16 0.16 0.14 0.18 0.28 0.32 0.38 0.24 0.08 0.06 0.08 0.10 0.13 0.15 0.20 0.24 0.30
0.01 0.01 0.03 0.07 0.09 0.09 0.09 0.10 0.13 0.14 0.13 0.12 0.12 0.13 0.14 0.13 0.11 0.11 0.11 0.11 0.12 0.14 0.14 0.14 0.13 0.13 0.14 0.17 0.19 0.18 0.17 0.18 0.27 0.42 0.20 0.04 0.04 0.05 0.08 0.11 0.14 0.19 0.24
0.01 0.02 0.03 0.05 0.09 0.09 0.10 0.11 0.13 0.14 0.14 0.15 0.15 0.15 0.15 0.15 0.14 0.12 0.12 0.12 0.13 0.14 0.15 0.17 0.17 0.14 0.14 0.16 0.18 0.20 0.25 0.29 0.27 0.36 0.34 0.15 0.09 0.05 0.07 0.09 0.12 0.17 0.23

GEFSSE_prec_meanprecacc_204.txt.gz
Total_Precipitation_Accumulation
0.05 0.06 0.22 0.27 0.29 0.28 0.28 0.28 0.26 0.24 0.23 0.24 0.26 0.27 0.26 0.27 0.28 0.28 0.32 0.35 0.38 0.35 0.37 0.42 0.41 0.39 0.37 0.35 0.34 0.33 0.27 0.24 0.23 0.27 0.35 0.41 0.38 0.30 0.26 0.23 0.20 0.28 0.36
0.04 0.06 0.16 0.20 0.24 0.26 0.27 0.25 0.22 0.19 0.19 0.18 0.18 0.20 0.21 0.22 0.24 0.25 0.30 0.36 0.40 0.36 0.35 0.39 0.42 0.42 0.40 0.38 0.37 0.35 0.26 0.18 0.15 0.15 0.18 0.26 0.30 0.29 0.25 0.25 0.25 0.39 0.42
0.02 0.04 0.10 0.16 0.20 0.23 0.24 0.22 0.19 0.16 0.14 0.14 0.13 0.15 0.17 0.19 0.22 0.24 0.28 0.30 0.34 0.38 0.37 0.36 0.45 0.48 0.45 0.42 0.39 0.35 0.28 0.17 0.10 0.09 0.10 0.19 0.29 0.34 0.30 0.27 0.28 0.32 0.36
0.01 0.02 0.05 0.13 0.19 0.22 0.23 0.21 0.18 0.16 0.13 0.12 0.12 0.13 0.16 0.18 0.20 0.23 0.28 0.30 0.35 0.44 0.47 0.49 0.56 0.54 0.48 0.42 0.38 0.33 0.32 0.21 0.10 0.08 0.07 0.18 0.34 0.41 0.35 0.31 0.27 0.28 0.31
0.00 0.01 0.04 0.11 0.17 0.20 0.21 0.22 0.21 0.17 0.14 0.13 0.14 0.13 0.15 0.17 0.19 0.21 0.24 0.29 0.35 0.46 0.47 0.46 0.51 0.50 0.44 0.41 0.36 0.38 0.41 0.29 0.14 0.06 0.05 0.12 0.28 0.44 0.39 0.37 0.30 0.26 0.28
0.00 0.01 0.03 0.11 0.18 0.19 0.22 0.26 0.26 0.20 0.16 0.16 0.15 0.15 0.16 0.16 0.16 0.18 0.20 0.20 0.25 0.32 0.34 0.39 0.43 0.44 0.42 0.38 0.32 0.36 0.44 0.38 0.16 0.04 0.06 0.09 0.22 0.39 0.38 0.38 0.33 0.28 0.25
0.00 0.01 0.03 0.11 0.18 0.20 0.22 0.26 0.27 0.21 0.17 0.16 0.17 0.19 0.18 0.17 0.17 0.17 0.15 0.15 0.15 0.18 0.22 0.30 0.40 0.45 0.44 0.38 0.33 0.37 0.44 0.35 0.13 0.11 0.12 0.13 0.19 0.28 0.40 0.42 0.37 0.33 0.29
0.00 0.01 0.04 0.12 0.19 0.20 0.21 0.25 0.30 0.25 0.21 0.18 0.21 0.23 0.22 0.21 0.21 0.21 0.18 0.15 0.14 0.13 0.16 0.21 0.33 0.50 0.50 0.38 0.36 0.41 0.39 0.21 0.08 0.08 0.12 0.16 0.19 0.32 0.62 0.69 0.50 0.39 0.35
0.01 0.02 0.04 0.11 0.16 0.20 0.21 0.24 0.30 0.27 0.25 0.23 0.24 0.25 0.24 0.22 0.22 0.23 0.22 0.20 0.20 0.19 0.16 0.17 0.26 0.45 0.48 0.40 0.41 0.45 0.31 0.12 0.04 0.11 0.10 0.19 0.18 0.39 0.75 0.83 0.71 0.53 0.42
0.01 0.02 0.05 0.10 0.14 0.17 0.19 0.23 0.27 0.26 0.26 0.26 0.25 0.24 0.21 0.21 0.22 0.21 0.18 0.16 0.18 0.21 0.19 0.17 0.19 0.31 0.38 0.38 0.46 0.41 0.18 0.06 0.02 0.07 0.17 0.17 0.16 0.41 0.81 0.91 0.84 0.70 0.56
0.03 0.04 0.06 0.12 0.15 0.16 0.18 0.20 0.23 0.24 0.23 0.23 0.23 0.20 0.20 0.18 0.18 0.17 0.14 0.14 0.17 0.19 0.19 0.21 0.21 0.25 0.30 0.28 0.35 0.27 0.10 0.04 0.04 0.08 0.16 0.15 0.18 0.39 0.77 0.94 0.89 0.81 0.72
0.03 0.04 0.07 0.11 0.14 0.16 0.16 0.17 0.20 0.20 0.18 0.17 0.17 0.17 0.19 0.20 0.20 0.18 0.15 0.15 0.18 0.18 0.20 0.24 0.26 0.25 0.24 0.22 0.34 0.27 0.13 0.09 0.09 0.06 0.09 0.08 0.19 0.40 0.64 0.85 0.95 0.88 0.83
0.03 0.05 0.07 0.11 0.14 0.15 0.16 0.17 0.18 0.18 0.18 0.18 0.18 0.19 0.24 0.26 0.26 0.23 0.20 0.18 0.18 0.17 0.19 0.23 0.27 0.25 0.29 0.42 0.56 0.44 0.29 0.22 0.14 0.07 0.04 0.05 0.15 0.30 0.50 0.68 0.88 0.99 0.99
0.05 0.06 0.09 0.12 0.14 0.14 0.17 0.19 0.16 0.15 0.14 0.15 0.17 0.17 0.20 0.22 0.21 0.20 0.18 0.16 0.16 0.16 0.17 0.19 0.22 0.25 0.28 0.34 0.38 0.35 0.29 0.25 0.17 0.12 0.07 0.06 0.09 0.16 0.30 0.47 0.67 0.93 1.03
0.06 0.07 0.09 0.12 0.14 0.16 0.18 0.20 0.17 0.14 0.12 0.10 0.11 0.11 0.12 0.13 0.14 0.14 0.13 0.13 0.12 0.13 0.14 0.15 0.15 0.16 0.20 0.23 0.22 0.22 0.23 0.21 0.18 0.17 0.14 0.11 0.09 0.11 0.18 0.31 0.45 0.70 0.96
0.07 0.08 0.09 0.11 0.13 0.16 0.16 0.18 0.18 0.15 0.13 0.13 0.12 0.11 0.10 0.10 0.09 0.09 0.09 0.09 0.10 0.09 0.10 0.11 0.12 0.12 0.14 0.17 0.17 0.16 0.17 0.15 0.14 0.15 0.16 0.15 0.12 0.11 0.17 0.25 0.34 0.46 0.73
0.06 0.08 0.09 0.11 0.13 0.16 0.17 0.16 0.17 0.17 0.14 0.14 0.13 0.12 0.11 0.10 0.09 0.08 0.08 0.08 0.08 0.10 0.12 0.17 0.19 0.19 0.20 0.21 0.20 0.21 0.19 0.17 0.16 0.17 0.18 0.18 0.18 0.16 0.18 0.28 0.34 0.38 0.53
0.05 0.08 0.09 0.12 0.12 0.15 0.18 0.18 0.17 0.18 0.16 0.13 0.13 0.13 0.12 0.12 0.12 0.11 0.09 0.08 0.07 0.09 0.14 0.20 0.25 0.26 0.24 0.26 0.25 0.27 0.28 0.27 0.22 0.23 0.25 0.22 0.22 0.20 0.19 0.24 0.33 0.39 0.50
0.06 0.07 0.10 0.12 0.13 0.13 0.18 0.21 0.18 0.19 0.18 0.14 0.14 0.15 0.14 0.15 0.15 0.15 0.13 0.11 0.10 0.12 0.15 0.20 0.22 0.25 0.26 0.28 0.30 0.32 0.35 0.37 0.34 0.29 0.26 0.24 0.23 0.22 0.23 0.24 0.28 0.32 0.44
0.07 0.07 0.08 0.11 0.14 0.14 0.18 0.24 0.25 0.21 0.19 0.16 0.13 0.13 0.14 0.14 0.15 0.15 0.14 0.14 0.15 0.17 0.19 0.21 0.24 0.25 0.26 0.31 0.35 0.34 0.38 0.38 0.37 0.33 0.30 0.32 0.31 0.25 0.23 0.24 0.27 0.27 0.30
0.06 0.08 0.09 0.10 0.15 0.17 0.18 0.22 0.24 0.20 0.17 0.16 0.13 0.11 0.11 0.12 0.12 0.13 0.12 0.13 0.14 0.16 0.19 0.22 0.24 0.24 0.24 0.26 0.30 0.27 0.25 0.27 0.30 0.28 0.27 0.30 0.34 0.36 0.35 0.31 0.29 0.28 0.29
0.03 0.06 0.09 0.09 0.11 0.16 0.16 0.17 0.20 0.18 0.16 0.16 0.14 0.12 0.11 0.11 0.11 0.12 0.12 0.14 0.15 0.14 0.14 0.15 0.18 0.21 0.20 0.20 0.27 0.30 0.24 0.21 0.20 0.20 0.20 0.24 0.30 0.37 0.40 0.41 0.40 0.36 0.33
0.02 0.04 0.07 0.08 0.08 0.11 0.16 0.20 0.23 0.25 0.21 0.19 0.18 0.14 0.12 0.11 0.11 0.11 0.11 0.13 0.15 0.17 0.16 0.14 0.15 0.19 0.20 0.18 0.21 0.36 0.44 0.31 0.21 0.16 0.17 0.18 0.21 0.23 0.25 0.30 0.34 0.38 0.39
0.01 0.03 0.06 0.09 0.09 0.09 0.13 0.20 0.23 0.24 0.22 0.17 0.14 0.14 0.13 0.12 0.11 0.11 0.12 0.13 0.16 0.18 0.18 0.17 0.16 0.18 0.20 0.21 0.19 0.22 0.31 0.34 0.41 0.27 0.10 0.08 0.10 0.11 0.13 0.16 0.20 0.25 0.30
0.01 0.02 0.03 0.08 0.10 0.09 0.10 0.14 0.19 0.22 0.21 0.20 0.18 0.16 0.16 0.16 0.13 0.13 0.13 0.15 0.16 0.18 0.18 0.19 0.18 0.19 0.20 0.21 0.23 0.23 0.20 0.20 0.29 0.44 0.23 0.06 0.05 0.06 0.09 0.12 0.15 0.20 0.25
0.02 0.02 0.04 0.06 0.09 0.10 0.11 0.13 0.17 0.19 0.21 0.23 0.23 0.21 0.19 0.18 0.17 0.15 0.14 0.15 0.17 0.19 0.20 0.22 0.22 0.21 0.21 0.22 0.23 0.25 0.29 0.32 0.29 0.38 0.36 0.17 0.10 0.06 0.07 0.10 0.13 0.18 0.24

GEFSSE_prec_meanprecacc_210.txt.gz
Total_Precipitation_Accumulation
0.05 0.06 0.22 0.28 0.30 0.29 0.29 0.29 0.27 0.25 0.25 0.26 0.27 0.28 0.27 0.28 0.30 0.30 0.33 0.37 0.40 0.37 0.39 0.45 0.44 0.44 0.42 0.38 0.38 0.37 0.30 0.26 0.26 0.29 0.37 0.41 0.38 0.31 0.26 0.24 0.21 0.28 0.37
0.04 0.06 0.16 0.21 0.25 0.27 0.28 0.26 0.23 0.20 0.20 0.21 0.20 0.22 0.23 0.24 0.26 0.27 0.32 0.39 0.43 0.38 0.38 0.42 0.46 0.46 0.45 0.42 0.42 0.38 0.27 0.19 0.16 0.16 0.19 0.26 0.31 0.29 0.26 0.25 0.26 0.40 0.42
0.02 0.04 0.10 0.16 0.21 0.24 0.25 0.23 0.20 0.17 0.16 0.16 0.15 0.17 0.19 0.21 0.24 0.26 0.30 0.32 0.37 0.41 0.40 0.40 0.49 0.53 0.51 0.47 0.44 0.38 0.30 0.18 0.11 0.10 0.10 0.19 0.29 0.35 0.31 0.27 0.28 0.32 0.37
0.01 0.02 0.05 0.13 0.19 0.23 0.24 0.22 0.19 0.17 0.15 0.14 0.15 0.16 0.18 0.20 0.22 0.25 0.30 0.33 0.37 0.47 0.49 0.52 0.59 0.59 0.53 0.47 0.42 0.36 0.33 0.22 0.11 0.08 0.07 0.18 0.34 0.41 0.36 0.31 0.27 0.29 0.32
0.00 0.01 0.04 0.11 0.18 0.21 0.22 0.23 0.22 0.19 0.16 0.15 0.15 0.15 0.17 0.19 0.21 0.24 0.27 0.32 0.38 0.49 0.49 0.48 0.54 0.53 0.48 0.45 0.39 0.40 0.43 0.30 0.14 0.06 0.05 0.12 0.28 0.45 0.40 0.37 0.30 0.26 0.28
0.00 0.01 0.04 0.11 0.18 0.20 0.23 0.27 0.27 0.22 0.18 0.18 0.17 0.17 0.18 0.19 0.19 0.21 0.22 0.23 0.27 0.35 0.38 0.42 0.45 0.46 0.44 0.41 0.34 0.38 0.46 0.39 0.16 0.05 0.06 0.10 0.22 0.41 0.40 0.38 0.34 0.29 0.26
0.00 0.01 0.03 0.11 0.19 0.21 0.23 0.28 0.29 0.23 0.19 0.18 0.19 0.22 0.21 0.20 0.20 0.20 0.17 0.17 0.17 0.20 0.26 0.34 0.42 0.46 0.46 0.40 0.35 0.38 0.45 0.36 0.13 0.12 0.13 0.14 0.20 0.29 0.42 0.43 0.37 0.34 0.30
0.00 0.01 0.04 0.13 0.20 0.22 0.23 0.27 0.32 0.27 0.23 0.20 0.23 0.25 0.25 0.24 0.25 0.25 0.21 0.17 0.16 0.15 0.18 0.24 0.35 0.52 0.51 0.39 0.38 0.43 0.40 0.21 0.08 0.08 0.12 0.17 0.20 0.33 0.63 0.71 0.51 0.40 0.36
0.01 0.02 0.04 0.11 0.17 0.21 0.23 0.27 0.32 0.30 0.27 0.25 0.26 0.27 0.27 0.27 0.26 0.27 0.25 0.23 0.23 0.21 0.18 0.20 0.29 0.48 0.49 0.42 0.43 0.47 0.33 0.13 0.05 0.11 0.11 0.19 0.19 0.40 0.75 0.84 0.71 0.54 0.43
0.01 0.02 0.05 0.10 0.15 0.19 0.22 0.26 0.29 0.29 0.29 0.28 0.28 0.26 0.24 0.24 0.26 0.24 0.21 0.19 0.21 0.23 0.21 0.19 0.22 0.34 0.40 0.40 0.48 0.43 0.20 0.07 0.03 0.07 0.17 0.18 0.16 0.41 0.82 0.91 0.84 0.70 0.56
0.03 0.04 0.06 0.12 0.15 0.18 0.21 0.23 0.26 0.26 0.25 0.26 0.26 0.23 0.23 0.22 0.22 0.21 0.17 0.16 0.19 0.21 0.21 0.23 0.24 0.29 0.33 0.32 0.37 0.29 0.12 0.05 0.05 0.09 0.16 0.15 0.18 0.39 0.78 0.94 0.89 0.81 0.73
0.03 0.04 0.07 0.11 0.15 0.18 0.19 0.22 0.25 0.24 0.21 0.19 0.19 0.21 0.23 0.24 0.23 0.20 0.18 0.17 0.20 0.20 0.22 0.26 0.28 0.28 0.28 0.26 0.37 0.30 0.14 0.10 0.10 0.06 0.09 0.08 0.20 0.40 0.65 0.86 0.95 0.89 0.84
0.03 0.05 0.07 0.11 0.15 0.17 0.20 0.21 0.24 0.23 0.22 0.21 0.21 0.22 0.27 0.29 0.29 0.26 0.23 0.21 0.20 0.19 0.20 0.24 0.29 0.26 0.31 0.45 0.59 0.46 0.31 0.24 0.15 0.08 0.04 0.06 0.15 0.31 0.51 0.69 0.89 1.00 1.00
0.05 0.06 0.09 0.12 0.15 0.17 0.21 0.24 0.22 0.21 0.19 0.19 0.20 0.20 0.22 0.24 0.23 0.22 0.21 0.19 0.19 0.19 0.19 0.21 0.23 0.26 0.29 0.36 0.42 0.38 0.31 0.27 0.18 0.13 0.08 0.07 0.10 0.17 0.31 0.48 0.68 0.94 1.04
0.06 0.07 0.09 0.12 0.15 0.18 0.22 0.26 0.24 0.22 0.19 0.16 0.15 0.15 0.14 0.16 0.16 0.17 0.15 0.15 0.15 0.16 0.17 0.18 0.17 0.18 0.21 0.25 0.25 0.25 0.25 0.23 0.19 0.18 0.15 0.11 0.09 0.12 0.19 0.32 0.46 0.71 0.98
0.07 0.08 0.09 0.11 0.13 0.17 0.19 0.22 0.25 0.24 0.23 0.21 0.18 0.16 0.14 0.12 0.11 0.11 0.11 0.11 0.11 0.12 0.12 0.15 0.15 0.15 0.17 0.20 0.19 0.18 0.19 0.17 0.16 0.16 0.17 0.15 0.13 0.12 0.17 0.26 0.36 0.48 0.75
0.06 0.08 0.09 0.11 0.13 0.17 0.18 0.19 0.23 0.25 0.25 0.24 0.20 0.17 0.14 0.12 0.11 0.10 0.10 0.10 0.10 0.11 0.15 0.20 0.22 0.24 0.24 0.24 0.22 0.22 0.21 0.19 0.18 0.19 0.20 0.19 0.19 0.17 0.19 0.29 0.36 0.40 0.55
0.05 0.08 0.09 0.12 0.13 0.15 0.19 0.21 0.22 0.26 0.27 0.24 0.22 0.20 0.17 0.15 0.14 0.13 0.11 0.10 0.09 0.11 0.16 0.23 0.28 0.30 0.29 0.30 0.28 0.29 0.30 0.29 0.25 0.25 0.26 0.23 0.23 0.21 0.20 0.25 0.34 0.41 0.52
0.06 0.07 0.10 0.12 0.13 0.14 0.18 0.24 0.22 0.25 0.28 0.26 0.23 0.23 0.20 0.19 0.19 0.17 0.15 0.13 0.12 0.14 0.17 0.22 0.25 0.29 0.30 0.33 0.34 0.35 0.37 0.39 0.36 0.31 0.27 0.25 0.24 0.23 0.23 0.25 0.29 0.33 0.45
0.07 0.08 0.09 0.12 0.15 0.15 0.18 0.26 0.28 0.26 0.28 0.28 0.23 0.21 0.20 0.20 0.20 0.18 0.17 0.16 0.17 0.19 0.21 0.24 0.26 0.28 0.30 0.35 0.40 0.38 0.41 0.40 0.39 0.35 0.32 0.33 0.32 0.26 0.24 0.25 0.28 0.28 0.31
0.06 0.08 0.10 0.10 0.16 0.18 0.18 0.23 0.27 0.24 0.24 0.26 0.24 0.20 0.20 0.18 0.18 0.18 0.17 0.17 0.17 0.18 0.20 0.24 0.26 0.27 0.27 0.31 0.35 0.32 0.30 0.31 0.32 0.30 0.28 0.30 0.34 0.37 0.36 0.33 0.31 0.30 0.31
0.04 0.06 0.09 0.09 0.12 0.17 0.17 0.18 0.22 0.22 0.22 0.23 0.24 0.24 0.23 0.21 0.18 0.18 0.18 0.20 0.19 0.17 0.16 0.17 0.21 0.25 0.24 0.25 0.33 0.37 0.31 0.27 0.25 0.22 0.22 0.25 0.31 0.38 0.41 0.42 0.41 0.38 0.35
0.04 0.05 0.08 0.09 0.09 0.13 0.18 0.21 0.25 0.29 0.27 0.27 0.27 0.25 0.25 0.24 0.20 0.18 0.18 0.20 0.20 0.20 0.18 0.16 0.18 0.23 0.25 0.25 0.29 0.44 0.50 0.36 0.26 0.19 0.19 0.20 0.22 0.24 0.27 0.31 0.36 0.39 0.40
0.04 0.05 0.08 0.11 0.10 0.10 0.14 0.22 0.25 0.28 0.26 0.22 0.21 0.23 0.24 0.24 0.23 0.19 0.19 0.20 0.22 0.23 0.21 0.20 0.19 0.21 0.25 0.26 0.27 0.30 0.37 0.40 0.46 0.32 0.13 0.11 0.12 0.13 0.15 0.18 0.22 0.26 0.32
0.02 0.03 0.06 0.11 0.12 0.11 0.12 0.15 0.22 0.24 0.23 0.24 0.25 0.24 0.26 0.26 0.24 0.22 0.20 0.21 0.22 0.23 0.22 0.22 0.21 0.23 0.24 0.26 0.29 0.29 0.27 0.26 0.34 0.50 0.28 0.10 0.09 0.09 0.12 0.15 0.17 0.22 0.27
0.03 0.04 0.05 0.08 0.11 0.12 0.14 0.15 0.19 0.22 0.23 0.26 0.28 0.29 0.27 0.27 0.26 0.24 0.23 0.23 0.23 0.24 0.24 0.25 0.25 0.24 0.24 0.26 0.28 0.30 0.35 0.38 0.33 0.42 0.40 0.21 0.15 0.11 0.11 0.13 0.16 0.20 0.27

GEFSSE_prec_meanprecacc_216.txt.gz
Total_Precipitation_Accumulation
0.05 0.07 0.23 0.29 0.31 0.30 0.30 0.30 0.28 0.25 0.25 0.26 0.27 0.29 0.28 0.30 0.31 0.32 0.34 0.38 0.41 0.39 0.41 0.47 0.47 0.47 0.46 0.44 0.43 0.41 0.34 0.30 0.31 0.33 0.39 0.43 0.39 0.32 0.27 0.25 0.22 0.29 0.37
0.04 0.06 0.16 0.21 0.25 0.28 0.28 0.26 0.24 0.20 0.21 0.21 0.20 0.22 0.23 0.25 0.27 0.28 0.33 0.40 0.44 0.40 0.40 0.45 0.48 0.49 0.48 0.46 0.46 0.41 0.30 0.23 0.20 0.19 0.21 0.27 0.32 0.30 0.26 0.26 0.27 0.40 0.43
0.02 0.04 0.10 0.17 0.21 0.25 0.26 0.24 0.21 0.18 0.16 0.17 0.16 0.18 0.20 0.22 0.26 0.27 0.32 0.33 0.37 0.42 0.42 0.42 0.51 0.55 0.54 0.51 0.48 0.41 0.33 0.22 0.14 0.12 0.11 0.20 0.30 0.35 0.31 0.28 0.29 0.33 0.37
0.01 0.02 0.05 0.13 0.20 0.24 0.25 0.23 0.20 0.18 0.16 0.15 0.16 0.17 0.19 0.22 0.24 0.27 0.33 0.35 0.39 0.49 0.51 0.54 0.61 0.61 0.55 0.49 0.45 0.39 0.36 0.24 0.12 0.09 0.08 0.18 0.34 0.42 0.37 0.32 0.28 0.29 0.33
0.00 0.01 0.04 0.12 0.19 0.22 0.23 0.24 0.23 0.20 0.17 0.16 0.16 0.17 0.18 0.21 0.23 0.26 0.29 0.34 0.40 0.51 0.50 0.50 0.56 0.55 0.50 0.46 0.41 0.43 0.46 0.32 0.16 0.07 0.06 0.13 0.28 0.46 0.41 0.38 0.31 0.27 0.29
0.00 0.01 0.04 0.11 0.19 0.21 0.25 0.29 0.29 0.23 0.20 0.19 0.18 0.19 0.19 0.21 0.22 0.24 0.25 0.25 0.29 0.36 0.39 0.43 0.46 0.47 0.46 0.42 0.36 0.40 0.48 0.41 0.18 0.06 0.07 0.10 0.23 0.41 0.41 0.39 0.34 0.29 0.26
0.00 0.01 0.03 0.12 0.20 0.21 0.24 0.29 0.30 0.24 0.21 0.19 0.21 0.23 0.22 0.21 0.22 0.22 0.20 0.20 0.19 0.22 0.27 0.36 0.43 0.48 0.47 0.41 0.36 0.40 0.47 0.38 0.15 0.13 0.14 0.15 0.20 0.30 0.43 0.44 0.38 0.34 0.31
0.00 0.01 0.04 0.13 0.21 0.22 0.24 0.28 0.34 0.29 0.24 0.22 0.24 0.26 0.26 0.26 0.27 0.28 0.24 0.21 0.19 0.17 0.20 0.26 0.37 0.54 0.53 0.41 0.39 0.44 0.42 0.24 0.10 0.10 0.13 0.17 0.21 0.34 0.64 0.72 0.52 0.41 0.37
0.01 0.02 0.05 0.12 0.17 0.22 0.24 0.28 0.34 0.32 0.29 0.27 0.28 0.28 0.28 0.28 0.28 0.30 0.28 0.26 0.27 0.23 0.21 0.22 0.31 0.50 0.52 0.44 0.44 0.48 0.34 0.14 0.06 0.12 0.12 0.20 0.19 0.40 0.76 0.85 0.72 0.55 0.45
0.01 0.02 0.05 0.11 0.15 0.19 0.22 0.27 0.31 0.31 0.31 0.31 0.30 0.27 0.25 0.25 0.27 0.26 0.24 0.23 0.25 0.26 0.24 0.22 0.24 0.36 0.42 0.42 0.50 0.45 0.21 0.08 0.04 0.08 0.18 0.18 0.17 0.42 0.82 0.92 0.85 0.71 0.57
0.03 0.04 0.06 0.12 0.16 0.19 0.22 0.24 0.27 0.28 0.29 0.29 0.28 0.24 0.24 0.23 0.23 0.22 0.18 0.18 0.22 0.24 0.24 0.26 0.26 0.31 0.35 0.33 0.39 0.31 0.13 0.06 0.06 0.09 0.17 0.16 0.19 0.40 0.79 0.96 0.90 0.82 0.73
0.03 0.04 0.07 0.12 0.15 0.18 0.20 0.22 0.26 0.26 0.24 0.22 0.21 0.22 0.24 0.25 0.24 0.21 0.18 0.18 0.22 0.22 0.25 0.29 0.31 0.31 0.31 0.27 0.39 0.31 0.15 0.10 0.10 0.07 0.10 0.09 0.21 0.41 0.66 0.86 0.96 0.90 0.85
0.04 0.06 0.08 0.11 0.15 0.18 0.21 0.22 0.25 0.25 0.25 0.24 0.24 0.25 0.29 0.32 0.30 0.27 0.24 0.22 0.21 0.20 0.22 0.27 0.31 0.29 0.33 0.46 0.60 0.48 0.32 0.25 0.15 0.08 0.05 0.06 0.16 0.31 0.52 0.70 0.90 1.02 1.01
0.05 0.07 0.09 0.13 0.15 0.17 0.21 0.25 0.23 0.22 0.21 0.21 0.23 0.23 0.26 0.27 0.25 0.24 0.22 0.20 0.20 0.20 0.21 0.22 0.24 0.28 0.31 0.38 0.43 0.40 0.32 0.28 0.19 0.13 0.08 0.07 0.10 0.18 0.32 0.49 0.69 0.96 1.06
0.06 0.07 0.10 0.12 0.15 0.18 0.22 0.26 0.25 0.24 0.21 0.18 0.18 0.18 0.18 0.19 0.19 0.19 0.18 0.17 0.16 0.17 0.18 0.19 0.18 0.19 0.23 0.26 0.27 0.27 0.27 0.25 0.20 0.18 0.15 0.11 0.10 0.12 0.20 0.34 0.48 0.73 1.00
0.07 0.08 0.09 0.11 0.13 0.18 0.20 0.23 0.26 0.26 0.25 0.24 0.21 0.19 0.18 0.17 0.15 0.15 0.15 0.14 0.13 0.13 0.14 0.16 0.16 0.17 0.19 0.21 0.20 0.20 0.21 0.19 0.18 0.19 0.18 0.16 0.13 0.12 0.17 0.27 0.37 0.50 0.77
0.06 0.08 0.10 0.11 0.13 0.17 0.19 0.20 0.23 0.27 0.27 0.26 0.23 0.22 0.20 0.17 0.16 0.14 0.14 0.13 0.12 0.14 0.17 0.22 0.24 0.25 0.26 0.26 0.24 0.24 0.23 0.21 0.20 0.22 0.22 0.20 0.19 0.17 0.19 0.30 0.37 0.42 0.57
0.06 0.08 0.10 0.12 0.13 0.16 0.20 0.22 0.24 0.27 0.29 0.27 0.25 0.24 0.23 0.22 0.20 0.19 0.16 0.14 0.12 0.14 0.19 0.26 0.30 0.32 0.30 0.31 0.30 0.32 0.32 0.31 0.27 0.28 0.29 0.25 0.24 0.22 0.21 0.26 0.35 0.42 0.54
0.06 0.07 0.10 0.13 0.14 0.16 0.20 0.25 0.24 0.26 0.30 0.28 0.27 0.28 0.27 0.27 0.27 0.24 0.20 0.18 0.16 0.17 0.20 0.25 0.28 0.31 0.32 0.34 0.36 0.37 0.40 0.42 0.39 0.34 0.30 0.28 0.27 0.24 0.25 0.26 0.31 0.35 0.47
0.07 0.08 0.09 0.12 0.16 0.16 0.20 0.28 0.30 0.28 0.30 0.30 0.27 0.25 0.27 0.29 0.29 0.28 0.25 0.23 0.23 0.24 0.25 0.26 0.29 0.31 0.32 0.37 0.42 0.40 0.43 0.43 0.42 0.38 0.35 0.35 0.34 0.28 0.26 0.27 0.29 0.30 0.33
0.06 0.09 0.10 0.11 0.17 0.19 0.19 0.24 0.28 0.26 0.26 0.28 0.27 0.25 0.26 0.27 0.28 0.28 0.27 0.27 0.26 0.25 0.26 0.28 0.29 0.29 0.29 0.33 0.37 0.34 0.31 0.33 0.35 0.33 0.31 0.33 0.37 0.39 0.37 0.34 0.32 0.31 0.32
0.04 0.07 0.10 0.10 0.13 0.19 0.19 0.19 0.23 0.23 0.24 0.27 0.27 0.27 0.28 0.27 0.27 0.28 0.28 0.29 0.29 0.27 0.24 0.24 0.27 0.30 0.27 0.28 0.36 0.39 0.33 0.29 0.27 0.25 0.25 0.28 0.34 0.40 0.43 0.44 0.43 0.39 0.36
0.05 0.06 0.09 0.10 0.11 0.16 0.22 0.23 0.26 0.30 0.28 0.30 0.29 0.28 0.28 0.27 0.27 0.27 0.27 0.28 0.28 0.29 0.27 0.23 0.24 0.29 0.31 0.29 0.33 0.47 0.53 0.38 0.27 0.21 0.22 0.24 0.27 0.28 0.30 0.34 0.38 0.42 0.42
0.07 0.08 0.10 0.13 0.12 0.12 0.18 0.26 0.29 0.31 0.28 0.24 0.23 0.24 0.26 0.27 0.27 0.27 0.27 0.28 0.30 0.30 0.28 0.27 0.25 0.27 0.30 0.31 0.31 0.34 0.40 0.42 0.49 0.34 0.16 0.14 0.16 0.18 0.21 0.22 0.25 0.29 0.34
0.06 0.08 0.09 0.14 0.15 0.13 0.13 0.18 0.25 0.29 0.29 0.29 0.28 0.27 0.28 0.29 0.28 0.28 0.28 0.29 0.30 0.30 0.30 0.30 0.28 0.29 0.29 0.31 0.33 0.33 0.30 0.28 0.37 0.54 0.31 0.12 0.11 0.12 0.15 0.19 0.22 0.26 0.30
0.04 0.06 0.09 0.12 0.15 0.15 0.16 0.17 0.22 0.27 0.30 0.33 0.35 0.33 0.30 0.30 0.30 0.29 0.30 0.30 0.31 0.31 0.30 0.31 0.31 0.30 0.29 0.30 0.32 0.35 0.39 0.42 0.37 0.46 0.44 0.24 0.18 0.14 0.14 0.16 0.19 0.25 0.31

GEFSSE_prec_meanprecacc_222.txt.gz
Total_Precipitation_Accumulation
0.05 0.07 0.23 0.30 0.32 0.31 0.31 0.32 0.30 0.26 0.26 0.27 0.29 0.30 0.30 0.31 0.33 0.35 0.37 0.41 0.43 0.40 0.43 0.50 0.49 0.49 0.48 0.47 0.48 0.46 0.40 0.37 0.37 0.38 0.44 0.47 0.43 0.35 0.29 0.25 0.22 0.29 0.38
0.04 0.06 0.17 0.22 0.26 0.29 0.30 0.29 0.26 0.21 0.22 0.22 0.21 0.23 0.24 0.26 0.29 0.31 0.36 0.43 0.46 0.41 0.42 0.47 0.50 0.51 0.50 0.49 0.50 0.45 0.35 0.27 0.23 0.22 0.24 0.31 0.35 0.33 0.28 0.26 0.27 0.40 0.43
0.02 0.04 0.11 0.18 0.23 0.26 0.28 0.27 0.24 0.20 0.18 0.18 0.17 0.20 0.21 0.23 0.27 0.29 0.35 0.37 0.40 0.44 0.44 0.44 0.53 0.57 0.57 0.54 0.51 0.44 0.35 0.23 0.15 0.14 0.13 0.23 0.33 0.37 0.33 0.29 0.30 0.34 0.38
0.01 0.02 0.05 0.14 0.21 0.25 0.26 0.25 0.22 0.21 0.18 0.17 0.17 0.19 0.20 0.23 0.25 0.29 0.35 0.38 0.42 0.51 0.54 0.56 0.63 0.62 0.57 0.51 0.47 0.41 0.37 0.25 0.13 0.10 0.09 0.20 0.36 0.44 0.38 0.34 0.29 0.31 0.34
0.00 0.01 0.04 0.12 0.20 0.23 0.25 0.26 0.25 0.22 0.19 0.18 0.18 0.18 0.20 0.22 0.25 0.28 0.30 0.36 0.42 0.53 0.53 0.53 0.58 0.56 0.51 0.48 0.43 0.44 0.46 0.33 0.17 0.07 0.07 0.14 0.30 0.47 0.42 0.39 0.33 0.29 0.31
0.00 0.01 0.04 0.12 0.20 0.22 0.26 0.30 0.31 0.25 0.22 0.21 0.20 0.20 0.21 0.22 0.24 0.26 0.27 0.27 0.31 0.39 0.42 0.47 0.50 0.49 0.47 0.44 0.37 0.41 0.50 0.42 0.19 0.06 0.07 0.11 0.24 0.42 0.42 0.41 0.36 0.31 0.28
0.00 0.01 0.03 0.12 0.20 0.22 0.25 0.30 0.32 0.26 0.24 0.23 0.24 0.25 0.24 0.23 0.24 0.24 0.22 0.22 0.22 0.25 0.31 0.39 0.47 0.50 0.49 0.43 0.38 0.41 0.49 0.39 0.16 0.13 0.15 0.15 0.21 0.31 0.44 0.46 0.40 0.36 0.32
0.00 0.01 0.04 0.13 0.21 0.23 0.25 0.28 0.35 0.31 0.27 0.25 0.27 0.29 0.29 0.29 0.29 0.30 0.25 0.22 0.20 0.20 0.23 0.29 0.40 0.56 0.55 0.43 0.40 0.46 0.44 0.25 0.11 0.10 0.14 0.18 0.22 0.35 0.66 0.74 0.54 0.43 0.39
0.01 0.02 0.05 0.12 0.18 0.22 0.24 0.28 0.35 0.33 0.31 0.31 0.32 0.32 0.31 0.31 0.31 0.32 0.30 0.28 0.28 0.26 0.24 0.25 0.33 0.52 0.53 0.46 0.46 0.49 0.36 0.16 0.08 0.13 0.13 0.21 0.20 0.42 0.78 0.87 0.74 0.58 0.47
0.01 0.02 0.05 0.11 0.15 0.20 0.23 0.27 0.32 0.32 0.33 0.33 0.33 0.32 0.28 0.28 0.30 0.29 0.26 0.25 0.27 0.29 0.27 0.25 0.27 0.38 0.44 0.45 0.52 0.46 0.22 0.10 0.06 0.09 0.19 0.19 0.18 0.44 0.84 0.94 0.87 0.72 0.59
0.03 0.04 0.06 0.12 0.16 0.19 0.22 0.24 0.28 0.29 0.30 0.31 0.31 0.27 0.27 0.26 0.25 0.24 0.20 0.19 0.24 0.26 0.27 0.28 0.29 0.34 0.38 0.36 0.42 0.32 0.15 0.08 0.07 0.11 0.18 0.17 0.19 0.41 0.80 0.97 0.92 0.84 0.75
0.04 0.05 0.07 0.12 0.16 0.19 0.20 0.23 0.27 0.27 0.24 0.23 0.23 0.24 0.27 0.27 0.26 0.23 0.20 0.20 0.24 0.25 0.27 0.32 0.35 0.34 0.33 0.29 0.41 0.33 0.17 0.12 0.11 0.07 0.11 0.10 0.21 0.42 0.67 0.88 0.98 0.91 0.87
0.04 0.07 0.09 0.14 0.17 0.19 0.22 0.23 0.26 0.27 0.26 0.25 0.24 0.26 0.31 0.34 0.33 0.29 0.26 0.24 0.24 0.23 0.25 0.29 0.35 0.31 0.35 0.47 0.61 0.49 0.33 0.26 0.16 0.09 0.05 0.07 0.17 0.32 0.53 0.71 0.92 1.03 1.03
0.06 0.07 0.10 0.15 0.18 0.21 0.23 0.26 0.24 0.24 0.23 0.23 0.24 0.24 0.28 0.30 0.28 0.27 0.24 0.23 0.23 0.23 0.24 0.25 0.27 0.30 0.32 0.39 0.44 0.40 0.33 0.29 0.20 0.15 0.09 0.08 0.11 0.19 0.33 0.51 0.72 0.98 1.08
0.06 0.07 0.10 0.13 0.16 0.20 0.25 0.28 0.27 0.25 0.23 0.20 0.19 0.19 0.20 0.21 0.21 0.21 0.20 0.19 0.19 0.20 0.21 0.22 0.21 0.22 0.25 0.28 0.28 0.28 0.28 0.25 0.21 0.20 0.17 0.13 0.11 0.13 0.21 0.37 0.51 0.76 1.03
0.07 0.08 0.09 0.11 0.14 0.19 0.21 0.24 0.28 0.28 0.26 0.25 0.22 0.20 0.19 0.18 0.17 0.17 0.16 0.16 0.15 0.16 0.16 0.19 0.19 0.19 0.21 0.23 0.21 0.21 0.22 0.20 0.19 0.20 0.19 0.17 0.15 0.13 0.19 0.30 0.41 0.54 0.81
0.06 0.08 0.10 0.11 0.13 0.18 0.20 0.21 0.24 0.28 0.28 0.27 0.24 0.22 0.20 0.18 0.17 0.16 0.16 0.16 0.15 0.16 0.20 0.25 0.27 0.28 0.28 0.28 0.25 0.25 0.24 0.22 0.20 0.22 0.23 0.22 0.21 0.19 0.21 0.32 0.40 0.46 0.62
0.06 0.08 0.10 0.12 0.13 0.16 0.21 0.23 0.24 0.28 0.30 0.27 0.26 0.25 0.24 0.22 0.21 0.20 0.18 0.17 0.16 0.18 0.23 0.29 0.33 0.35 0.33 0.33 0.32 0.33 0.33 0.32 0.27 0.28 0.30 0.26 0.26 0.24 0.23 0.28 0.38 0.45 0.58
0.06 0.07 0.10 0.13 0.14 0.16 0.21 0.26 0.25 0.28 0.32 0.29 0.28 0.29 0.28 0.28 0.27 0.25 0.23 0.20 0.21 0.23 0.25 0.29 0.31 0.35 0.35 0.37 0.38 0.38 0.41 0.42 0.39 0.34 0.31 0.29 0.27 0.25 0.26 0.28 0.33 0.37 0.50
0.07 0.08 0.09 0.12 0.16 0.16 0.20 0.29 0.31 0.30 0.31 0.32 0.28 0.26 0.28 0.30 0.30 0.29 0.27 0.26 0.26 0.29 0.30 0.31 0.33 0.35 0.35 0.40 0.45 0.43 0.45 0.44 0.43 0.39 0.35 0.36 0.35 0.29 0.27 0.28 0.31 0.32 0.35
0.06 0.09 0.10 0.11 0.17 0.19 0.20 0.25 0.29 0.26 0.27 0.30 0.29 0.26 0.27 0.28 0.29 0.29 0.29 0.29 0.30 0.29 0.30 0.33 0.34 0.34 0.33 0.36 0.41 0.37 0.33 0.35 0.37 0.34 0.32 0.34 0.37 0.39 0.38 0.35 0.33 0.33 0.34
0.04 0.07 0.10 0.10 0.13 0.19 0.19 0.19 0.24 0.24 0.25 0.28 0.29 0.28 0.29 0.28 0.29 0.29 0.30 0.31 0.32 0.31 0.29 0.29 0.32 0.35 0.32 0.32 0.40 0.43 0.37 0.32 0.29 0.26 0.26 0.29 0.34 0.41 0.44 0.45 0.44 0.41 0.38
0.05 0.06 0.09 0.10 0.11 0.16 0.22 0.24 0.28 0.32 0.30 0.32 0.31 0.29 0.29 0.29 0.28 0.28 0.28 0.29 0.31 0.34 0.34 0.30 0.30 0.35 0.36 0.33 0.36 0.51 0.57 0.41 0.29 0.22 0.23 0.24 0.27 0.28 0.30 0.34 0.39 0.42 0.43
0.07 0.08 0.10 0.13 0.12 0.13 0.19 0.27 0.30 0.33 0.29 0.25 0.24 0.26 0.27 0.28 0.28 0.28 0.28 0.30 0.32 0.33 0.35 0.37 0.34 0.34 0.37 0.36 0.35 0.37 0.43 0.45 0.51 0.36 0.16 0.14 0.17 0.19 0.21 0.23 0.26 0.30 0.35
0.06 0.08 0.09 0.14 0.16 0.14 0.15 0.19 0.27 0.32 0.32 0.31 0.30 0.29 0.30 0.31 0.29 0.29 0.28 0.30 0.31 0.32 0.33 0.36 0.38 0.39 0.39 0.39 0.40 0.38 0.34 0.31 0.40 0.56 0.32 0.13 0.12 0.13 0.16 0.20 0.24 0.28 0.32
0.04 0.06 0.09 0.12 0.16 0.16 0.18 0.19 0.24 0.30 0.33 0.37 0.39 0.36 0.33 0.32 0.31 0.31 0.31 0.31 0.32 0.33 0.32 0.35 0.36 0.37 0.37 0.38 0.39 0.40 0.43 0.44 0.39 0.48 0.46 0.25 0.19 0.14 0.14 0.17 0.21 0.26 0.34

GEFSSE_prec_meanprecacc_228.txt.gz
Total_Precipitation_Accumulation
0.05 0.07 0.24 0.31 0.34 0.33 0.33 0.34 0.32 0.29 0.29 0.31 0.31 0.33 0.32 0.32 0.35 0.36 0.39 0.42 0.44 0.41 0.44 0.51 0.52 0.53 0.52 0.49 0.50 0.49 0.42 0.40 0.40 0.41 0.46 0.51 0.46 0.37 0.31 0.27 0.23 0.30 0.38
0.04 0.06 0.17 0.23 0.28 0.30 0.31 0.30 0.28 0.23 0.24 0.26 0.24 0.24 0.26 0.27 0.30 0.32 0.38 0.44 0.47 0.42 0.43 0.49 0.54 0.52 0.52 0.50 0.52 0.47 0.36 0.28 0.25 0.23 0.25 0.32 0.37 0.35 0.31 0.29 0.28 0.41 0.44
0.03 0.04 0.11 0.18 0.24 0.27 0.29 0.28 0.25 0.21 0.20 0.21 0.20 0.22 0.22 0.25 0.28 0.31 0.37 0.39 0.42 0.46 0.46 0.47 0.57 0.59 0.59 0.56 0.53 0.45 0.37 0.25 0.16 0.14 0.14 0.23 0.34 0.40 0.36 0.32 0.31 0.35 0.39
0.01 0.02 0.05 0.15 0.22 0.26 0.28 0.26 0.23 0.22 0.19 0.19 0.20 0.21 0.22 0.24 0.26 0.30 0.37 0.39 0.43 0.53 0.56 0.59 0.66 0.64 0.59 0.52 0.48 0.42 0.38 0.25 0.14 0.11 0.09 0.20 0.37 0.45 0.40 0.36 0.31 0.32 0.36
0.00 0.01 0.04 0.13 0.21 0.25 0.26 0.27 0.26 0.23 0.19 0.19 0.20 0.21 0.23 0.24 0.26 0.29 0.31 0.37 0.44 0.54 0.55 0.54 0.60 0.58 0.54 0.49 0.44 0.46 0.47 0.33 0.17 0.08 0.07 0.15 0.30 0.48 0.44 0.41 0.35 0.30 0.33
0.00 0.01 0.04 0.13 0.21 0.23 0.27 0.31 0.32 0.26 0.23 0.22 0.22 0.22 0.23 0.25 0.26 0.27 0.28 0.28 0.32 0.40 0.43 0.48 0.51 0.51 0.49 0.46 0.39 0.43 0.51 0.43 0.19 0.06 0.07 0.11 0.24 0.43 0.44 0.43 0.38 0.33 0.30
0.00 0.01 0.04 0.13 0.21 0.23 0.26 0.31 0.33 0.28 0.25 0.24 0.26 0.27 0.27 0.26 0.27 0.26 0.22 0.22 0.22 0.26 0.32 0.41 0.48 0.52 0.51 0.45 0.40 0.43 0.50 0.40 0.16 0.14 0.15 0.15 0.22 0.31 0.45 0.48 0.42 0.38 0.35
0.00 0.01 0.04 0.14 0.22 0.23 0.25 0.29 0.36 0.32 0.28 0.27 0.29 0.31 0.31 0.32 0.34 0.33 0.27 0.23 0.21 0.21 0.24 0.30 0.41 0.57 0.56 0.44 0.42 0.47 0.45 0.26 0.11 0.11 0.14 0.18 0.22 0.36 0.67 0.75 0.56 0.45 0.42
0.01 0.02 0.05 0.12 0.18 0.24 0.26 0.29 0.35 0.33 0.32 0.32 0.33 0.34 0.34 0.34 0.34 0.36 0.33 0.30 0.30 0.27 0.25 0.26 0.34 0.53 0.55 0.48 0.48 0.50 0.36 0.17 0.08 0.14 0.13 0.22 0.21 0.43 0.79 0.88 0.76 0.59 0.49
0.02 0.03 0.06 0.11 0.16 0.21 0.24 0.28 0.32 0.32 0.33 0.34 0.35 0.33 0.30 0.30 0.33 0.32 0.28 0.26 0.28 0.30 0.28 0.26 0.28 0.40 0.46 0.46 0.54 0.47 0.23 0.11 0.06 0.10 0.20 0.20 0.18 0.45 0.86 0.96 0.88 0.74 0.61
0.03 0.04 0.07 0.12 0.16 0.19 0.23 0.24 0.28 0.29 0.30 0.31 0.31 0.28 0.28 0.27 0.27 0.26 0.22 0.21 0.25 0.28 0.29 0.30 0.30 0.35 0.40 0.38 0.44 0.33 0.15 0.08 0.07 0.11 0.19 0.18 0.20 0.43 0.83 0.99 0.94 0.86 0.77
0.04 0.05 0.07 0.12 0.16 0.19 0.21 0.23 0.27 0.27 0.25 0.23 0.23 0.25 0.27 0.28 0.28 0.25 0.22 0.22 0.26 0.27 0.29 0.34 0.37 0.37 0.35 0.32 0.43 0.34 0.17 0.12 0.12 0.08 0.11 0.11 0.23 0.44 0.70 0.91 1.00 0.93 0.88
0.05 0.07 0.11 0.16 0.19 0.21 0.23 0.24 0.27 0.28 0.27 0.26 0.25 0.27 0.32 0.35 0.34 0.31 0.29 0.26 0.26 0.25 0.27 0.31 0.37 0.33 0.37 0.49 0.64 0.50 0.34 0.26 0.17 0.09 0.06 0.07 0.18 0.35 0.57 0.75 0.95 1.06 1.05
0.06 0.07 0.11 0.16 0.20 0.23 0.27 0.29 0.26 0.24 0.23 0.24 0.25 0.25 0.28 0.30 0.29 0.28 0.26 0.25 0.25 0.25 0.26 0.27 0.29 0.32 0.35 0.42 0.47 0.42 0.34 0.29 0.20 0.15 0.09 0.08 0.12 0.20 0.36 0.55 0.76 1.02 1.12
0.06 0.07 0.10 0.13 0.17 0.21 0.27 0.32 0.30 0.27 0.24 0.21 0.20 0.20 0.20 0.22 0.22 0.22 0.20 0.20 0.20 0.21 0.23 0.24 0.23 0.24 0.28 0.30 0.31 0.30 0.29 0.26 0.22 0.20 0.17 0.13 0.11 0.14 0.23 0.40 0.55 0.81 1.07
0.07 0.08 0.09 0.11 0.14 0.19 0.22 0.25 0.30 0.33 0.31 0.27 0.23 0.21 0.20 0.19 0.17 0.17 0.17 0.16 0.16 0.17 0.18 0.20 0.21 0.21 0.23 0.25 0.23 0.22 0.23 0.21 0.19 0.20 0.20 0.18 0.15 0.14 0.20 0.32 0.44 0.58 0.86
0.06 0.08 0.10 0.11 0.13 0.18 0.20 0.21 0.24 0.29 0.33 0.31 0.25 0.23 0.21 0.19 0.17 0.16 0.16 0.16 0.15 0.17 0.21 0.27 0.29 0.30 0.30 0.30 0.27 0.27 0.26 0.23 0.21 0.23 0.24 0.23 0.22 0.20 0.22 0.34 0.43 0.49 0.66
0.06 0.08 0.10 0.12 0.13 0.17 0.21 0.23 0.24 0.28 0.30 0.28 0.26 0.26 0.25 0.23 0.22 0.21 0.19 0.17 0.16 0.19 0.24 0.31 0.36 0.37 0.35 0.36 0.34 0.35 0.35 0.34 0.29 0.29 0.31 0.27 0.26 0.25 0.23 0.29 0.40 0.48 0.61
0.06 0.07 0.10 0.13 0.14 0.16 0.21 0.26 0.25 0.28 0.32 0.30 0.29 0.30 0.29 0.29 0.28 0.27 0.24 0.21 0.21 0.24 0.27 0.31 0.33 0.37 0.37 0.39 0.41 0.41 0.43 0.45 0.41 0.36 0.32 0.30 0.28 0.26 0.27 0.28 0.34 0.39 0.54
0.07 0.08 0.09 0.12 0.16 0.16 0.20 0.29 0.31 0.30 0.32 0.32 0.29 0.28 0.29 0.31 0.32 0.32 0.29 0.27 0.27 0.29 0.31 0.33 0.35 0.36 0.37 0.42 0.47 0.45 0.47 0.47 0.45 0.41 0.37 0.38 0.36 0.30 0.28 0.29 0.32 0.32 0.37
0.06 0.09 0.10 0.11 0.17 0.19 0.20 0.25 0.29 0.26 0.27 0.30 0.29 0.27 0.28 0.30 0.31 0.31 0.30 0.30 0.30 0.30 0.31 0.33 0.34 0.35 0.34 0.38 0.44 0.40 0.36 0.38 0.39 0.36 0.34 0.36 0.39 0.41 0.40 0.36 0.34 0.34 0.35
0.04 0.07 0.10 0.10 0.13 0.19 0.19 0.19 0.24 0.24 0.25 0.28 0.29 0.29 0.30 0.30 0.30 0.30 0.30 0.31 0.32 0.32 0.29 0.29 0.32 0.35 0.33 0.34 0.43 0.46 0.40 0.35 0.32 0.29 0.28 0.30 0.35 0.42 0.45 0.46 0.45 0.41 0.38
0.05 0.06 0.09 0.10 0.11 0.16 0.22 0.24 0.28 0.32 0.30 0.32 0.32 0.30 0.30 0.30 0.29 0.29 0.29 0.31 0.31 0.35 0.35 0.30 0.30 0.35 0.36 0.35 0.38 0.55 0.61 0.45 0.32 0.24 0.25 0.26 0.29 0.30 0.31 0.35 0.40 0.43 0.44
0.07 0.08 0.10 0.13 0.12 0.13 0.19 0.27 0.30 0.33 0.29 0.25 0.25 0.27 0.28 0.29 0.29 0.29 0.30 0.31 0.33 0.34 0.36 0.38 0.35 0.35 0.38 0.38 0.38 0.40 0.46 0.48 0.55 0.39 0.18 0.16 0.19 0.21 0.23 0.24 0.27 0.30 0.36
0.06 0.08 0.09 0.14 0.16 0.14 0.15 0.19 0.27 0.32 0.32 0.31 0.31 0.31 0.32 0.33 0.31 0.31 0.30 0.31 0.32 0.33 0.34 0.37 0.39 0.40 0.41 0.41 0.42 0.40 0.37 0.34 0.43 0.59 0.35 0.15 0.14 0.14 0.18 0.22 0.25 0.29 0.33
0.04 0.06 0.09 0.12 0.16 0.16 0.18 0.19 0.25 0.30 0.33 0.37 0.41 0.38 0.34 0.34 0.33 0.32 0.31 0.32 0.33 0.33 0.33 0.35 0.37 0.38 0.39 0.39 0.41 0.42 0.46 0.48 0.42 0.51 0.49 0.28 0.21 0.16 0.16 0.18 0.22 0.28 0.35

GEFSSE_prec_meanprecacc_234.txt.gz
Total_Precipitation_Accumulation
0.06 0.07 0.24 0.32 0.35 0.35 0.34 0.36 0.33 0.31 0.32 0.33 0.34 0.35 0.33 0.33 0.35 0.36 0.39 0.43 0.44 0.42 0.45 0.53 0.55 0.55 0.54 0.52 0.52 0.51 0.44 0.41 0.41 0.42 0.48 0.53 0.48 0.39 0.33 0.29 0.25 0.32 0.39
0.04 0.06 0.17 0.23 0.28 0.31 0.32 0.32 0.29 0.25 0.26 0.28 0.27 0.27 0.27 0.29 0.31 0.32 0.38 0.45 0.48 0.43 0.44 0.50 0.56 0.55 0.53 0.52 0.53 0.48 0.37 0.29 0.25 0.23 0.25 0.33 0.38 0.37 0.33 0.31 0.30 0.43 0.46
0.03 0.04 0.11 0.19 0.24 0.28 0.30 0.28 0.25 0.22 0.21 0.23 0.23 0.24 0.23 0.26 0.29 0.31 0.37 0.40 0.43 0.47 0.47 0.48 0.59 0.62 0.62 0.58 0.54 0.47 0.38 0.25 0.16 0.14 0.14 0.24 0.35 0.42 0.38 0.33 0.33 0.37 0.40
0.01 0.03 0.05 0.15 0.22 0.27 0.28 0.27 0.24 0.22 0.20 0.21 0.22 0.24 0.24 0.25 0.28 0.32 0.38 0.41 0.44 0.54 0.57 0.61 0.67 0.66 0.62 0.54 0.49 0.44 0.39 0.26 0.14 0.11 0.10 0.21 0.38 0.46 0.42 0.38 0.33 0.34 0.37
0.00 0.02 0.05 0.13 0.21 0.25 0.28 0.28 0.27 0.23 0.20 0.20 0.22 0.24 0.26 0.26 0.28 0.30 0.32 0.38 0.45 0.55 0.55 0.55 0.61 0.59 0.56 0.51 0.45 0.47 0.48 0.34 0.18 0.08 0.07 0.15 0.31 0.49 0.45 0.43 0.36 0.32 0.34
0.00 0.01 0.04 0.13 0.21 0.24 0.28 0.32 0.32 0.27 0.23 0.23 0.23 0.25 0.26 0.29 0.29 0.29 0.29 0.29 0.34 0.41 0.44 0.48 0.52 0.52 0.50 0.46 0.40 0.44 0.52 0.44 0.20 0.07 0.09 0.13 0.25 0.44 0.45 0.44 0.39 0.34 0.31
0.00 0.01 0.04 0.13 0.22 0.24 0.26 0.31 0.33 0.28 0.25 0.25 0.27 0.29 0.29 0.30 0.31 0.28 0.24 0.24 0.23 0.26 0.32 0.41 0.48 0.52 0.52 0.46 0.41 0.44 0.50 0.40 0.17 0.15 0.16 0.17 0.23 0.32 0.46 0.49 0.43 0.39 0.36
0.01 0.02 0.04 0.14 0.22 0.24 0.25 0.29 0.36 0.32 0.29 0.27 0.30 0.32 0.33 0.35 0.37 0.35 0.28 0.24 0.22 0.21 0.24 0.30 0.41 0.58 0.57 0.45 0.43 0.47 0.45 0.27 0.12 0.12 0.16 0.20 0.24 0.37 0.68 0.77 0.57 0.46 0.43
0.01 0.02 0.05 0.13 0.19 0.25 0.26 0.29 0.35 0.34 0.33 0.33 0.34 0.35 0.35 0.35 0.36 0.38 0.35 0.31 0.31 0.28 0.26 0.27 0.34 0.53 0.55 0.48 0.48 0.51 0.37 0.17 0.09 0.15 0.14 0.23 0.22 0.45 0.80 0.90 0.78 0.60 0.50
0.02 0.03 0.06 0.12 0.16 0.21 0.25 0.28 0.32 0.33 0.34 0.35 0.35 0.33 0.30 0.31 0.34 0.33 0.30 0.28 0.30 0.31 0.30 0.27 0.29 0.40 0.46 0.47 0.54 0.48 0.23 0.11 0.07 0.11 0.21 0.20 0.19 0.46 0.87 0.97 0.90 0.75 0.62
0.04 0.05 0.07 0.13 0.17 0.21 0.24 0.25 0.28 0.30 0.30 0.31 0.31 0.28 0.28 0.28 0.29 0.28 0.23 0.22 0.26 0.30 0.30 0.31 0.32 0.36 0.40 0.39 0.44 0.34 0.15 0.08 0.08 0.12 0.19 0.18 0.21 0.44 0.84 1.01 0.96 0.87 0.78
0.04 0.06 0.08 0.13 0.17 0.21 0.22 0.24 0.28 0.27 0.25 0.24 0.23 0.25 0.27 0.30 0.31 0.28 0.24 0.22 0.27 0.28 0.31 0.36 0.39 0.38 0.36 0.32 0.44 0.34 0.18 0.12 0.12 0.08 0.11 0.11 0.23 0.45 0.71 0.92 1.02 0.95 0.90
0.05 0.07 0.11 0.17 0.21 0.22 0.24 0.25 0.28 0.29 0.28 0.27 0.26 0.27 0.32 0.36 0.36 0.34 0.31 0.28 0.27 0.26 0.28 0.32 0.38 0.34 0.38 0.51 0.66 0.52 0.35 0.27 0.17 0.10 0.06 0.07 0.18 0.35 0.58 0.76 0.97 1.08 1.07
0.06 0.07 0.11 0.17 0.21 0.25 0.29 0.31 0.27 0.26 0.25 0.25 0.26 0.26 0.28 0.31 0.30 0.29 0.27 0.26 0.27 0.27 0.28 0.30 0.31 0.34 0.36 0.43 0.49 0.45 0.36 0.31 0.22 0.16 0.10 0.09 0.12 0.21 0.37 0.56 0.78 1.04 1.14
0.07 0.08 0.10 0.13 0.17 0.22 0.27 0.32 0.31 0.27 0.24 0.22 0.22 0.22 0.21 0.22 0.23 0.23 0.22 0.21 0.21 0.23 0.25 0.26 0.25 0.26 0.30 0.33 0.33 0.33 0.31 0.27 0.23 0.21 0.18 0.14 0.12 0.14 0.24 0.41 0.56 0.82 1.10
0.07 0.08 0.10 0.12 0.14 0.19 0.22 0.25 0.30 0.33 0.31 0.28 0.24 0.22 0.20 0.19 0.18 0.18 0.18 0.17 0.17 0.17 0.18 0.21 0.22 0.24 0.25 0.27 0.25 0.24 0.24 0.22 0.21 0.21 0.21 0.19 0.16 0.15 0.22 0.33 0.45 0.59 0.87
0.06 0.08 0.10 0.12 0.13 0.18 0.20 0.21 0.25 0.29 0.33 0.31 0.26 0.23 0.22 0.19 0.18 0.17 0.17 0.17 0.16 0.18 0.21 0.27 0.29 0.31 0.32 0.32 0.28 0.28 0.27 0.24 0.22 0.25 0.26 0.24 0.23 0.21 0.24 0.35 0.44 0.50 0.68
0.06 0.08 0.10 0.13 0.13 0.17 0.21 0.24 0.25 0.28 0.30 0.28 0.26 0.26 0.25 0.24 0.22 0.22 0.20 0.19 0.17 0.20 0.25 0.31 0.36 0.37 0.36 0.36 0.35 0.35 0.36 0.34 0.30 0.31 0.33 0.29 0.28 0.26 0.25 0.31 0.42 0.50 0.63
0.06 0.07 0.10 0.13 0.14 0.16 0.22 0.26 0.26 0.28 0.32 0.30 0.29 0.30 0.29 0.29 0.29 0.28 0.25 0.23 0.23 0.25 0.28 0.32 0.34 0.37 0.37 0.39 0.41 0.41 0.44 0.45 0.42 0.37 0.33 0.31 0.29 0.27 0.28 0.30 0.36 0.41 0.55
0.07 0.08 0.09 0.12 0.16 0.16 0.21 0.29 0.32 0.30 0.32 0.32 0.30 0.28 0.29 0.31 0.32 0.32 0.30 0.29 0.29 0.31 0.32 0.34 0.36 0.37 0.38 0.43 0.47 0.46 0.47 0.47 0.46 0.42 0.38 0.39 0.37 0.31 0.29 0.30 0.33 0.34 0.38
0.06 0.09 0.10 0.11 0.17 0.19 0.20 0.25 0.29 0.27 0.27 0.30 0.29 0.27 0.29 0.30 0.31 0.32 0.31 0.31 0.32 0.31 0.32 0.34 0.35 0.35 0.35 0.38 0.44 0.40 0.37 0.38 0.39 0.37 0.34 0.36 0.39 0.42 0.41 0.37 0.35 0.35 0.36
0.04 0.07 0.10 0.10 0.13 0.19 0.19 0.19 0.24 0.24 0.26 0.28 0.29 0.30 0.30 0.30 0.30 0.31 0.31 0.32 0.34 0.33 0.31 0.30 0.33 0.36 0.34 0.34 0.43 0.46 0.40 0.35 0.32 0.29 0.28 0.31 0.36 0.42 0.45 0.47 0.46 0.42 0.39
0.05 0.06 0.09 0.10 0.11 0.16 0.22 0.24 0.28 0.32 0.31 0.32 0.32 0.30 0.31 0.30 0.30 0.30 0.30 0.32 0.33 0.36 0.35 0.31 0.31 0.36 0.37 0.35 0.39 0.55 0.61 0.45 0.32 0.25 0.25 0.27 0.29 0.30 0.32 0.36 0.40 0.44 0.45
0.07 0.08 0.10 0.13 0.12 0.13 0.19 0.27 0.30 0.33 0.30 0.25 0.25 0.27 0.29 0.30 0.30 0.30 0.31 0.32 0.34 0.35 0.37 0.38 0.35 0.36 0.39 0.39 0.38 0.40 0.47 0.49 0.56 0.40 0.19 0.16 0.19 0.21 0.23 0.25 0.28 0.32 0.37
0.06 0.08 0.09 0.14 0.16 0.14 0.15 0.20 0.28 0.32 0.32 0.32 0.31 0.31 0.32 0.34 0.33 0.32 0.31 0.32 0.33 0.34 0.34 0.37 0.39 0.41 0.41 0.41 0.43 0.41 0.37 0.35 0.43 0.59 0.35 0.15 0.14 0.15 0.18 0.22 0.26 0.30 0.34
0.04 0.06 0.09 0.12 0.16 0.16 0.18 0.19 0.25 0.30 0.34 0.38 0.41 0.38 0.35 0.35 0.35 0.34 0.33 0.33 0.34 0.34 0.33 0.35 0.37 0.38 0.39 0.40 0.41 0.43 0.46 0.48 0.43 0.52 0.50 0.29 0.21 0.16 0.16 0.19 0.23 0.29 0.36

GEFSSE_prec_meanprecacc_240.txt.gz
Total_Precipitation_Accumulation
0.06 0.08 0.24 0.33 0.36 0.36 0.36 0.37 0.34 0.32 0.33 0.35 0.36 0.35 0.33 0.34 0.35 0.36 0.40 0.43 0.45 0.43 0.46 0.54 0.56 0.57 0.56 0.53 0.53 0.52 0.46 0.43 0.43 0.43 0.48 0.53 0.49 0.40 0.34 0.31 0.27 0.33 0.40
0.04 0.06 0.17 0.24 0.29 0.33 0.33 0.33 0.30 0.26 0.27 0.29 0.28 0.28 0.28 0.29 0.31 0.33 0.38 0.45 0.48 0.44 0.45 0.51 0.57 0.56 0.54 0.53 0.54 0.49 0.38 0.30 0.26 0.24 0.25 0.33 0.39 0.39 0.35 0.32 0.32 0.44 0.47
0.03 0.04 0.11 0.19 0.24 0.29 0.30 0.29 0.26 0.23 0.22 0.24 0.24 0.25 0.25 0.27 0.30 0.32 0.38 0.41 0.44 0.48 0.48 0.49 0.61 0.63 0.63 0.60 0.56 0.48 0.38 0.25 0.17 0.15 0.14 0.24 0.36 0.43 0.40 0.35 0.34 0.38 0.42
0.01 0.03 0.05 0.15 0.22 0.27 0.29 0.28 0.25 0.23 0.21 0.21 0.22 0.25 0.26 0.27 0.29 0.33 0.39 0.42 0.45 0.55 0.58 0.62 0.68 0.67 0.63 0.55 0.51 0.44 0.40 0.26 0.14 0.11 0.10 0.21 0.38 0.48 0.43 0.39 0.34 0.35 0.38
0.01 0.02 0.05 0.14 0.21 0.26 0.28 0.29 0.27 0.23 0.20 0.21 0.23 0.25 0.28 0.29 0.30 0.31 0.34 0.40 0.46 0.56 0.56 0.56 0.61 0.60 0.57 0.52 0.46 0.47 0.49 0.34 0.18 0.08 0.07 0.15 0.31 0.51 0.47 0.44 0.37 0.33 0.35
0.00 0.01 0.04 0.13 0.22 0.24 0.28 0.32 0.33 0.27 0.24 0.23 0.24 0.25 0.27 0.32 0.31 0.31 0.30 0.31 0.35 0.42 0.44 0.48 0.52 0.52 0.51 0.47 0.40 0.44 0.52 0.44 0.20 0.07 0.09 0.13 0.25 0.45 0.47 0.46 0.40 0.35 0.32
0.00 0.01 0.04 0.13 0.22 0.24 0.26 0.31 0.33 0.28 0.26 0.25 0.27 0.29 0.30 0.31 0.32 0.30 0.26 0.26 0.25 0.28 0.33 0.41 0.48 0.52 0.52 0.46 0.41 0.44 0.50 0.40 0.17 0.15 0.16 0.17 0.23 0.33 0.48 0.51 0.45 0.41 0.37
0.01 0.02 0.04 0.14 0.23 0.25 0.26 0.29 0.36 0.33 0.29 0.28 0.30 0.32 0.34 0.36 0.37 0.36 0.30 0.25 0.23 0.23 0.25 0.31 0.42 0.58 0.57 0.45 0.43 0.48 0.46 0.27 0.12 0.12 0.16 0.20 0.24 0.39 0.70 0.79 0.59 0.48 0.44
0.01 0.02 0.05 0.13 0.19 0.25 0.26 0.29 0.35 0.34 0.33 0.33 0.34 0.35 0.35 0.36 0.37 0.38 0.36 0.32 0.31 0.29 0.27 0.28 0.36 0.54 0.55 0.48 0.49 0.51 0.37 0.17 0.09 0.15 0.14 0.23 0.22 0.45 0.82 0.92 0.79 0.62 0.52
0.02 0.04 0.06 0.12 0.17 0.21 0.25 0.28 0.32 0.33 0.34 0.35 0.35 0.34 0.30 0.31 0.34 0.33 0.30 0.28 0.30 0.32 0.30 0.28 0.30 0.41 0.47 0.47 0.54 0.48 0.24 0.12 0.07 0.11 0.21 0.20 0.19 0.47 0.88 0.98 0.91 0.77 0.63
0.04 0.05 0.07 0.13 0.17 0.21 0.24 0.25 0.28 0.30 0.30 0.32 0.32 0.28 0.28 0.28 0.29 0.28 0.23 0.22 0.27 0.30 0.31 0.32 0.32 0.37 0.41 0.39 0.44 0.34 0.16 0.09 0.08 0.12 0.20 0.18 0.21 0.45 0.85 1.02 0.96 0.88 0.80
0.05 0.06 0.08 0.13 0.17 0.21 0.22 0.24 0.28 0.28 0.25 0.24 0.23 0.25 0.27 0.30 0.31 0.29 0.25 0.23 0.27 0.28 0.31 0.36 0.40 0.39 0.36 0.33 0.44 0.35 0.18 0.13 0.12 0.08 0.12 0.12 0.24 0.46 0.73 0.93 1.02 0.96 0.91
0.06 0.08 0.12 0.18 0.21 0.23 0.24 0.25 0.28 0.29 0.28 0.27 0.26 0.27 0.33 0.36 0.36 0.34 0.32 0.29 0.28 0.27 0.29 0.33 0.38 0.35 0.38 0.51 0.66 0.52 0.35 0.28 0.18 0.10 0.07 0.08 0.20 0.38 0.60 0.78 0.98 1.09 1.08
0.07 0.09 0.13 0.18 0.23 0.26 0.29 0.31 0.27 0.26 0.25 0.25 0.27 0.26 0.29 0.31 0.30 0.29 0.27 0.27 0.28 0.28 0.29 0.30 0.31 0.34 0.37 0.44 0.50 0.45 0.36 0.31 0.22 0.17 0.11 0.09 0.13 0.22 0.39 0.58 0.80 1.06 1.16
0.07 0.09 0.12 0.15 0.19 0.23 0.28 0.33 0.31 0.28 0.24 0.22 0.22 0.22 0.21 0.22 0.23 0.24 0.22 0.22 0.22 0.23 0.25 0.26 0.25 0.27 0.31 0.33 0.33 0.33 0.32 0.28 0.23 0.21 0.18 0.15 0.13 0.15 0.26 0.42 0.58 0.84 1.12
0.07 0.09 0.10 0.13 0.15 0.20 0.23 0.26 0.31 0.33 0.31 0.28 0.24 0.22 0.21 0.19 0.18 0.18 0.18 0.18 0.17 0.18 0.19 0.22 0.23 0.24 0.25 0.27 0.26 0.25 0.24 0.22 0.21 0.22 0.21 0.19 0.17 0.16 0.23 0.35 0.48 0.62 0.90
0.07 0.08 0.10 0.13 0.14 0.18 0.20 0.22 0.25 0.30 0.33 0.31 0.26 0.23 0.22 0.20 0.18 0.17 0.17 0.17 0.16 0.18 0.22 0.27 0.30 0.32 0.32 0.32 0.29 0.29 0.27 0.25 0.23 0.25 0.26 0.25 0.24 0.22 0.24 0.36 0.46 0.53 0.71
0.06 0.08 0.11 0.13 0.14 0.17 0.21 0.25 0.26 0.28 0.30 0.28 0.27 0.26 0.25 0.24 0.22 0.22 0.20 0.19 0.18 0.20 0.25 0.31 0.36 0.37 0.36 0.37 0.35 0.36 0.37 0.36 0.31 0.31 0.33 0.30 0.29 0.27 0.26 0.32 0.43 0.51 0.66
0.06 0.07 0.10 0.13 0.14 0.17 0.22 0.28 0.26 0.29 0.33 0.31 0.30 0.30 0.29 0.30 0.29 0.28 0.25 0.23 0.23 0.25 0.28 0.32 0.34 0.37 0.38 0.40 0.42 0.42 0.44 0.45 0.42 0.37 0.33 0.31 0.30 0.28 0.29 0.31 0.36 0.42 0.57
0.07 0.08 0.09 0.13 0.16 0.17 0.21 0.30 0.33 0.31 0.33 0.33 0.30 0.28 0.30 0.32 0.33 0.33 0.31 0.29 0.29 0.31 0.32 0.34 0.36 0.38 0.39 0.43 0.48 0.46 0.48 0.47 0.46 0.42 0.38 0.39 0.37 0.31 0.29 0.30 0.33 0.34 0.39
0.06 0.09 0.10 0.11 0.17 0.20 0.21 0.26 0.30 0.27 0.28 0.31 0.30 0.28 0.29 0.31 0.32 0.32 0.32 0.32 0.32 0.31 0.32 0.35 0.35 0.35 0.35 0.38 0.44 0.40 0.37 0.38 0.39 0.37 0.34 0.37 0.39 0.42 0.41 0.37 0.35 0.35 0.36
0.04 0.07 0.10 0.10 0.13 0.19 0.19 0.20 0.25 0.25 0.27 0.29 0.30 0.31 0.32 0.32 0.31 0.31 0.31 0.33 0.34 0.34 0.31 0.30 0.33 0.36 0.34 0.34 0.43 0.46 0.40 0.35 0.32 0.29 0.28 0.31 0.36 0.42 0.45 0.47 0.46 0.43 0.40
0.05 0.06 0.09 0.10 0.11 0.16 0.22 0.24 0.29 0.33 0.31 0.33 0.32 0.31 0.32 0.32 0.32 0.32 0.31 0.32 0.33 0.36 0.36 0.31 0.31 0.36 0.37 0.35 0.39 0.55 0.62 0.45 0.32 0.25 0.25 0.27 0.29 0.30 0.32 0.36 0.41 0.45 0.46
0.07 0.08 0.10 0.13 0.12 0.13 0.19 0.28 0.31 0.33 0.30 0.25 0.25 0.27 0.30 0.31 0.31 0.31 0.32 0.33 0.35 0.36 0.37 0.39 0.35 0.36 0.39 0.39 0.38 0.40 0.47 0.49 0.56 0.40 0.19 0.17 0.20 0.22 0.24 0.25 0.28 0.32 0.38
0.06 0.08 0.09 0.14 0.16 0.14 0.15 0.20 0.28 0.32 0.32 0.32 0.31 0.31 0.33 0.34 0.33 0.33 0.31 0.32 0.34 0.34 0.35 0.37 0.39 0.41 0.41 0.41 0.43 0.41 0.37 0.35 0.43 0.60 0.36 0.17 0.15 0.15 0.18 0.22 0.26 0.30 0.34
0.04 0.06 0.09 0.12 0.16 0.16 0.18 0.19 0.25 0.30 0.34 0.38 0.41 0.38 0.35 0.35 0.35 0.35 0.34 0.33 0.35 0.35 0.33 0.35 0.37 0.38 0.39 0.40 0.41 0.43 0.46 0.48 0.43 0.52 0.50 0.29 0.21 0.16 0.16 0.19 0.23 0.29 0.36

GEFSSE_prec_meanprecacc_246.txt.gz
Total_Precipitation_Accumulation
0.07 0.08 0.26 0.34 0.38 0.38 0.38 0.39 0.36 0.33 0.34 0.36 0.36 0.36 0.33 0.34 0.36 0.36 0.40 0.44 0.46 0.44 0.47 0.56 0.58 0.59 0.59 0.56 0.56 0.54 0.48 0.45 0.45 0.44 0.49 0.54 0.50 0.42 0.35 0.32 0.27 0.33 0.41
0.05 0.07 0.18 0.25 0.31 0.34 0.36 0.34 0.31 0.27 0.28 0.30 0.29 0.29 0.28 0.29 0.31 0.33 0.39 0.46 0.49 0.45 0.46 0.52 0.58 0.58 0.58 0.55 0.56 0.50 0.39 0.31 0.27 0.24 0.26 0.34 0.41 0.41 0.36 0.33 0.32 0.45 0.48
0.03 0.05 0.12 0.20 0.26 0.30 0.32 0.31 0.27 0.24 0.23 0.25 0.25 0.27 0.26 0.27 0.30 0.33 0.39 0.42 0.45 0.49 0.49 0.50 0.62 0.65 0.66 0.62 0.57 0.49 0.39 0.26 0.17 0.15 0.14 0.25 0.37 0.45 0.41 0.37 0.35 0.39 0.43
0.01 0.03 0.06 0.16 0.23 0.29 0.30 0.28 0.26 0.24 0.22 0.22 0.23 0.26 0.28 0.29 0.30 0.34 0.41 0.45 0.47 0.55 0.58 0.63 0.69 0.68 0.64 0.57 0.52 0.45 0.40 0.27 0.15 0.12 0.10 0.21 0.38 0.49 0.45 0.41 0.36 0.36 0.40
0.01 0.02 0.05 0.14 0.22 0.27 0.29 0.29 0.28 0.24 0.21 0.21 0.24 0.25 0.28 0.30 0.31 0.32 0.35 0.42 0.48 0.57 0.56 0.56 0.62 0.61 0.58 0.54 0.47 0.48 0.49 0.35 0.18 0.08 0.07 0.15 0.31 0.52 0.48 0.46 0.39 0.34 0.37
0.00 0.01 0.04 0.14 0.23 0.25 0.28 0.33 0.33 0.28 0.24 0.24 0.24 0.26 0.28 0.32 0.33 0.33 0.31 0.32 0.36 0.43 0.45 0.49 0.52 0.52 0.51 0.48 0.41 0.45 0.53 0.44 0.20 0.07 0.09 0.13 0.26 0.46 0.48 0.48 0.42 0.37 0.34
0.00 0.01 0.04 0.14 0.23 0.25 0.27 0.32 0.34 0.29 0.26 0.25 0.27 0.30 0.31 0.32 0.33 0.32 0.28 0.27 0.27 0.29 0.34 0.42 0.49 0.53 0.53 0.47 0.42 0.45 0.51 0.41 0.17 0.15 0.16 0.17 0.23 0.34 0.49 0.53 0.47 0.43 0.39
0.01 0.02 0.05 0.15 0.24 0.25 0.26 0.30 0.37 0.33 0.30 0.28 0.30 0.33 0.35 0.36 0.38 0.36 0.31 0.26 0.24 0.24 0.26 0.31 0.42 0.58 0.57 0.46 0.44 0.48 0.46 0.27 0.12 0.12 0.16 0.20 0.24 0.39 0.71 0.80 0.61 0.49 0.46
0.02 0.02 0.06 0.13 0.20 0.25 0.27 0.30 0.36 0.34 0.33 0.33 0.35 0.36 0.36 0.36 0.37 0.39 0.36 0.32 0.32 0.30 0.28 0.28 0.36 0.55 0.56 0.49 0.49 0.51 0.37 0.18 0.09 0.15 0.14 0.23 0.23 0.46 0.82 0.93 0.81 0.63 0.52
0.03 0.04 0.07 0.13 0.17 0.22 0.25 0.29 0.33 0.33 0.34 0.35 0.36 0.34 0.31 0.31 0.35 0.34 0.30 0.29 0.31 0.33 0.31 0.29 0.30 0.42 0.48 0.47 0.55 0.48 0.24 0.12 0.07 0.11 0.21 0.21 0.19 0.47 0.89 1.00 0.93 0.78 0.64
0.05 0.06 0.08 0.14 0.18 0.21 0.24 0.25 0.28 0.30 0.31 0.32 0.32 0.29 0.28 0.28 0.29 0.28 0.24 0.23 0.27 0.31 0.32 0.33 0.34 0.38 0.41 0.39 0.44 0.34 0.16 0.09 0.08 0.12 0.20 0.19 0.21 0.46 0.87 1.04 0.98 0.89 0.81
0.06 0.07 0.09 0.13 0.17 0.21 0.22 0.25 0.28 0.28 0.26 0.24 0.24 0.25 0.28 0.30 0.31 0.29 0.25 0.23 0.27 0.29 0.32 0.37 0.41 0.39 0.37 0.33 0.44 0.35 0.18 0.13 0.12 0.08 0.12 0.12 0.24 0.48 0.76 0.96 1.05 0.98 0.93
0.06 0.09 0.14 0.19 0.22 0.23 0.25 0.25 0.28 0.29 0.28 0.27 0.26 0.27 0.33 0.36 0.36 0.34 0.32 0.30 0.28 0.27 0.29 0.33 0.39 0.35 0.38 0.51 0.67 0.52 0.35 0.28 0.18 0.10 0.07 0.09 0.20 0.40 0.63 0.81 1.01 1.12 1.10
0.08 0.09 0.13 0.19 0.23 0.26 0.29 0.31 0.28 0.27 0.26 0.26 0.27 0.26 0.29 0.32 0.31 0.30 0.27 0.27 0.28 0.28 0.29 0.30 0.31 0.34 0.37 0.44 0.50 0.45 0.36 0.31 0.22 0.17 0.11 0.10 0.13 0.24 0.40 0.60 0.82 1.09 1.18
0.08 0.09 0.12 0.15 0.19 0.24 0.29 0.33 0.32 0.28 0.26 0.24 0.24 0.23 0.22 0.23 0.24 0.24 0.23 0.22 0.22 0.23 0.25 0.27 0.26 0.27 0.31 0.34 0.34 0.33 0.32 0.28 0.23 0.21 0.18 0.15 0.13 0.16 0.26 0.43 0.60 0.86 1.14
0.08 0.09 0.11 0.13 0.16 0.21 0.23 0.27 0.32 0.34 0.32 0.28 0.25 0.23 0.22 0.21 0.19 0.19 0.18 0.18 0.18 0.18 0.19 0.22 0.23 0.25 0.26 0.28 0.26 0.25 0.25 0.22 0.21 0.22 0.21 0.20 0.18 0.17 0.23 0.35 0.49 0.64 0.92
0.08 0.10 0.11 0.13 0.15 0.18 0.21 0.24 0.27 0.31 0.34 0.31 0.26 0.23 0.22 0.20 0.18 0.17 0.18 0.17 0.16 0.18 0.22 0.28 0.31 0.33 0.33 0.32 0.29 0.29 0.28 0.25 0.23 0.26 0.27 0.25 0.25 0.23 0.25 0.37 0.47 0.55 0.73
0.06 0.09 0.12 0.14 0.15 0.18 0.23 0.27 0.28 0.29 0.31 0.29 0.27 0.27 0.25 0.24 0.23 0.23 0.21 0.20 0.18 0.21 0.26 0.33 0.37 0.38 0.36 0.37 0.36 0.36 0.37 0.36 0.32 0.32 0.34 0.31 0.30 0.28 0.27 0.32 0.44 0.53 0.68
0.06 0.08 0.11 0.14 0.15 0.17 0.24 0.31 0.29 0.30 0.33 0.31 0.30 0.31 0.30 0.31 0.30 0.29 0.26 0.24 0.24 0.26 0.28 0.32 0.34 0.38 0.38 0.40 0.42 0.42 0.45 0.46 0.42 0.37 0.34 0.31 0.30 0.28 0.29 0.31 0.37 0.42 0.57
0.07 0.08 0.10 0.13 0.17 0.18 0.23 0.33 0.35 0.32 0.33 0.34 0.31 0.28 0.30 0.33 0.34 0.34 0.32 0.30 0.30 0.32 0.32 0.34 0.36 0.38 0.39 0.44 0.48 0.46 0.48 0.47 0.46 0.42 0.38 0.39 0.37 0.31 0.29 0.30 0.33 0.34 0.39
0.06 0.09 0.10 0.12 0.18 0.21 0.21 0.26 0.30 0.28 0.29 0.32 0.31 0.28 0.30 0.32 0.33 0.33 0.33 0.33 0.33 0.32 0.33 0.35 0.36 0.36 0.35 0.39 0.44 0.40 0.37 0.38 0.39 0.37 0.35 0.37 0.39 0.42 0.41 0.37 0.35 0.35 0.36
0.04 0.07 0.10 0.11 0.14 0.20 0.20 0.21 0.25 0.26 0.28 0.30 0.31 0.32 0.32 0.32 0.32 0.32 0.32 0.34 0.35 0.34 0.32 0.31 0.34 0.36 0.34 0.34 0.43 0.46 0.40 0.35 0.32 0.29 0.28 0.31 0.36 0.42 0.45 0.47 0.46 0.43 0.40
0.05 0.06 0.09 0.10 0.11 0.17 0.23 0.25 0.30 0.34 0.32 0.34 0.33 0.31 0.32 0.33 0.32 0.33 0.32 0.33 0.34 0.37 0.36 0.31 0.31 0.36 0.37 0.35 0.39 0.55 0.62 0.45 0.32 0.25 0.25 0.27 0.29 0.30 0.32 0.36 0.41 0.45 0.46
0.07 0.08 0.10 0.13 0.12 0.13 0.19 0.28 0.31 0.33 0.30 0.26 0.25 0.28 0.30 0.32 0.32 0.32 0.33 0.34 0.36 0.37 0.38 0.39 0.36 0.36 0.39 0.39 0.38 0.40 0.47 0.49 0.56 0.40 0.19 0.17 0.20 0.22 0.24 0.25 0.28 0.32 0.38
0.06 0.08 0.09 0.14 0.16 0.15 0.15 0.20 0.28 0.32 0.32 0.32 0.32 0.32 0.33 0.35 0.34 0.34 0.33 0.33 0.35 0.36 0.36 0.38 0.40 0.42 0.42 0.42 0.43 0.41 0.37 0.35 0.43 0.60 0.36 0.17 0.16 0.16 0.18 0.22 0.26 0.30 0.34
0.04 0.06 0.10 0.12 0.16 0.16 0.18 0.19 0.25 0.30 0.34 0.38 0.42 0.39 0.35 0.35 0.36 0.35 0.35 0.34 0.35 0.36 0.35 0.37 0.38 0.40 0.41 0.42 0.43 0.44 0.47 0.48 0.43 0.52 0.50 0.29 0.21 0.16 0.16 0.19 0.23 0.29 0.36

GEFSSE_prec_meanprecacc_252.txt.gz
Total_Precipitation_Accumulation
0.07 0.09 0.27 0.35 0.40 0.40 0.39 0.40 0.36 0.33 0.34 0.36 0.37 0.37 0.34 0.35 0.37 0.37 0.40 0.44 0.46 0.45 0.48 0.57 0.59 0.62 0.61 0.59 0.60 0.57 0.50 0.46 0.46 0.45 0.51 0.55 0.51 0.42 0.36 0.33 0.28 0.34 0.42
0.05 0.07 0.19 0.26 0.32 0.36 0.38 0.37 0.32 0.27 0.29 0.31 0.29 0.29 0.29 0.29 0.31 0.33 0.40 0.46 0.50 0.46 0.48 0.54 0.60 0.61 0.61 0.58 0.58 0.52 0.40 0.31 0.27 0.25 0.27 0.35 0.41 0.41 0.37 0.34 0.33 0.46 0.49
0.03 0.05 0.13 0.21 0.27 0.31 0.33 0.32 0.28 0.25 0.24 0.26 0.25 0.27 0.27 0.28 0.31 0.33 0.40 0.43 0.47 0.51 0.50 0.52 0.65 0.68 0.69 0.64 0.58 0.49 0.39 0.26 0.17 0.15 0.15 0.26 0.38 0.45 0.42 0.37 0.36 0.41 0.45
0.02 0.03 0.06 0.17 0.25 0.30 0.31 0.29 0.27 0.25 0.23 0.24 0.24 0.27 0.28 0.30 0.30 0.34 0.41 0.46 0.49 0.58 0.59 0.64 0.70 0.69 0.66 0.58 0.53 0.46 0.40 0.27 0.15 0.12 0.10 0.22 0.39 0.50 0.46 0.42 0.37 0.38 0.42
0.01 0.02 0.06 0.15 0.23 0.28 0.30 0.31 0.29 0.25 0.22 0.23 0.25 0.26 0.29 0.31 0.32 0.32 0.35 0.43 0.49 0.58 0.57 0.57 0.62 0.61 0.59 0.55 0.48 0.49 0.49 0.35 0.18 0.08 0.07 0.16 0.32 0.53 0.50 0.47 0.40 0.35 0.38
0.01 0.01 0.05 0.14 0.24 0.26 0.30 0.34 0.35 0.29 0.26 0.25 0.26 0.28 0.29 0.33 0.33 0.33 0.32 0.32 0.37 0.43 0.45 0.50 0.52 0.53 0.52 0.49 0.42 0.45 0.53 0.44 0.20 0.08 0.09 0.14 0.27 0.48 0.50 0.48 0.42 0.38 0.35
0.01 0.02 0.05 0.15 0.24 0.26 0.28 0.33 0.35 0.30 0.28 0.27 0.29 0.32 0.32 0.33 0.34 0.33 0.28 0.27 0.27 0.30 0.34 0.42 0.49 0.53 0.53 0.48 0.43 0.46 0.51 0.41 0.18 0.15 0.17 0.17 0.24 0.35 0.51 0.54 0.48 0.44 0.40
0.01 0.02 0.06 0.17 0.25 0.27 0.28 0.31 0.38 0.34 0.31 0.29 0.31 0.34 0.36 0.38 0.39 0.37 0.31 0.26 0.25 0.24 0.26 0.31 0.43 0.59 0.58 0.46 0.44 0.49 0.46 0.27 0.13 0.12 0.16 0.20 0.24 0.40 0.72 0.82 0.62 0.51 0.47
0.02 0.03 0.07 0.15 0.21 0.27 0.28 0.31 0.37 0.35 0.34 0.34 0.35 0.36 0.37 0.38 0.38 0.39 0.37 0.33 0.33 0.30 0.28 0.29 0.36 0.55 0.57 0.49 0.49 0.51 0.37 0.18 0.09 0.15 0.15 0.23 0.23 0.47 0.84 0.94 0.82 0.65 0.54
0.04 0.04 0.08 0.14 0.18 0.23 0.27 0.30 0.33 0.34 0.35 0.36 0.36 0.34 0.31 0.32 0.36 0.35 0.31 0.29 0.32 0.33 0.32 0.29 0.31 0.42 0.48 0.48 0.55 0.48 0.24 0.12 0.08 0.11 0.21 0.21 0.20 0.49 0.91 1.01 0.94 0.79 0.65
0.06 0.07 0.09 0.15 0.19 0.23 0.26 0.27 0.30 0.32 0.32 0.33 0.33 0.29 0.29 0.29 0.30 0.29 0.24 0.23 0.28 0.32 0.33 0.34 0.34 0.38 0.42 0.40 0.45 0.35 0.17 0.09 0.09 0.13 0.21 0.19 0.22 0.47 0.88 1.05 0.99 0.91 0.82
0.07 0.08 0.11 0.15 0.18 0.23 0.24 0.27 0.31 0.31 0.28 0.26 0.25 0.26 0.28 0.30 0.32 0.30 0.26 0.24 0.28 0.29 0.33 0.39 0.42 0.40 0.38 0.34 0.44 0.35 0.18 0.13 0.12 0.09 0.12 0.12 0.25 0.49 0.77 0.98 1.07 0.99 0.94
0.07 0.10 0.15 0.20 0.23 0.24 0.26 0.27 0.30 0.32 0.32 0.30 0.28 0.28 0.33 0.37 0.37 0.35 0.33 0.30 0.29 0.28 0.30 0.34 0.40 0.36 0.39 0.52 0.67 0.52 0.35 0.28 0.18 0.10 0.07 0.09 0.21 0.41 0.64 0.83 1.03 1.13 1.12
0.08 0.10 0.14 0.20 0.25 0.28 0.31 0.33 0.29 0.28 0.28 0.29 0.30 0.29 0.31 0.33 0.32 0.31 0.28 0.28 0.29 0.29 0.30 0.31 0.32 0.35 0.37 0.45 0.50 0.45 0.36 0.31 0.22 0.17 0.11 0.10 0.14 0.24 0.41 0.61 0.83 1.11 1.21
0.08 0.10 0.13 0.16 0.20 0.25 0.31 0.35 0.33 0.30 0.28 0.26 0.26 0.26 0.25 0.25 0.27 0.26 0.24 0.23 0.23 0.24 0.27 0.28 0.27 0.28 0.32 0.35 0.35 0.34 0.32 0.28 0.23 0.21 0.18 0.15 0.13 0.16 0.27 0.44 0.62 0.88 1.16
0.08 0.10 0.12 0.14 0.16 0.21 0.24 0.28 0.34 0.36 0.34 0.30 0.26 0.25 0.24 0.23 0.22 0.21 0.20 0.19 0.19 0.20 0.20 0.23 0.24 0.26 0.27 0.29 0.27 0.26 0.26 0.23 0.22 0.22 0.21 0.20 0.18 0.17 0.24 0.36 0.50 0.65 0.94
0.08 0.11 0.13 0.14 0.15 0.19 0.22 0.25 0.28 0.33 0.35 0.33 0.27 0.24 0.23 0.22 0.21 0.19 0.19 0.18 0.17 0.19 0.23 0.29 0.32 0.35 0.35 0.34 0.30 0.30 0.28 0.26 0.24 0.26 0.27 0.25 0.25 0.23 0.25 0.38 0.48 0.57 0.76
0.08 0.11 0.14 0.16 0.16 0.19 0.23 0.28 0.29 0.30 0.32 0.30 0.28 0.27 0.26 0.25 0.25 0.24 0.23 0.21 0.19 0.21 0.26 0.33 0.38 0.39 0.37 0.38 0.36 0.37 0.37 0.37 0.32 0.33 0.35 0.31 0.30 0.28 0.27 0.32 0.44 0.54 0.70
0.07 0.09 0.13 0.17 0.17 0.19 0.25 0.32 0.30 0.31 0.34 0.32 0.31 0.31 0.30 0.32 0.32 0.30 0.27 0.25 0.25 0.26 0.29 0.32 0.35 0.38 0.38 0.41 0.43 0.43 0.45 0.46 0.42 0.38 0.34 0.32 0.30 0.28 0.29 0.31 0.37 0.43 0.58
0.08 0.09 0.11 0.15 0.20 0.21 0.27 0.35 0.37 0.34 0.35 0.35 0.31 0.29 0.32 0.34 0.35 0.34 0.33 0.31 0.31 0.32 0.33 0.35 0.37 0.38 0.39 0.44 0.48 0.46 0.48 0.48 0.46 0.42 0.38 0.39 0.38 0.31 0.29 0.30 0.34 0.34 0.39
0.07 0.10 0.12 0.13 0.21 0.25 0.25 0.29 0.32 0.30 0.31 0.33 0.32 0.29 0.31 0.32 0.33 0.34 0.33 0.33 0.34 0.33 0.33 0.36 0.36 0.36 0.36 0.39 0.44 0.40 0.37 0.38 0.40 0.37 0.35 0.37 0.40 0.42 0.41 0.38 0.35 0.35 0.36
0.05 0.08 0.11 0.12 0.16 0.22 0.22 0.23 0.27 0.27 0.30 0.32 0.33 0.33 0.33 0.33 0.32 0.32 0.32 0.34 0.35 0.35 0.32 0.32 0.35 0.37 0.34 0.35 0.43 0.47 0.40 0.35 0.32 0.29 0.28 0.31 0.36 0.42 0.45 0.47 0.46 0.43 0.40
0.06 0.07 0.10 0.11 0.13 0.18 0.24 0.27 0.33 0.36 0.34 0.35 0.34 0.32 0.33 0.33 0.33 0.33 0.33 0.34 0.34 0.37 0.37 0.32 0.32 0.37 0.38 0.36 0.39 0.55 0.62 0.45 0.32 0.25 0.26 0.27 0.29 0.30 0.32 0.36 0.41 0.45 0.46
0.08 0.09 0.11 0.14 0.13 0.14 0.19 0.28 0.32 0.34 0.31 0.26 0.26 0.28 0.31 0.32 0.32 0.33 0.34 0.35 0.37 0.38 0.39 0.40 0.37 0.38 0.40 0.40 0.39 0.41 0.47 0.49 0.56 0.40 0.19 0.17 0.20 0.22 0.24 0.25 0.28 0.32 0.38
0.07 0.09 0.11 0.16 0.17 0.15 0.15 0.20 0.28 0.33 0.32 0.32 0.32 0.32 0.33 0.35 0.35 0.35 0.34 0.35 0.36 0.36 0.37 0.39 0.40 0.43 0.44 0.44 0.45 0.43 0.38 0.35 0.44 0.60 0.37 0.17 0.16 0.16 0.18 0.22 0.26 0.30 0.34
0.05 0.07 0.11 0.13 0.17 0.17 0.19 0.19 0.25 0.31 0.34 0.38 0.42 0.39 0.36 0.36 0.36 0.36 0.36 0.35 0.36 0.36 0.35 0.38 0.40 0.41 0.43 0.44 0.45 0.46 0.49 0.50 0.44 0.53 0.51 0.29 0.22 0.17 0.16 0.19 0.23 0.29 0.36